Time,TemperatureF,DewpointF,PressureIn,WindDirection,WindDirectionDegrees,WindSpeedMPH,WindSpeedGustMPH,Humidity,HourlyPrecipIn,Conditions,Clouds,dailyrainin,SoftwareType,DateUTC
2013-06-07 00:01:00,54.0,45.5,30.04,WSW,250,0.0,0.0,73,0.00,,,0.00,Wunderground v.1.15,2013-06-07 07:01:00,
2013-06-07 00:04:00,54.0,45.5,30.04,WSW,250,0.0,0.0,73,0.00,,,0.00,Wunderground v.1.15,2013-06-07 07:04:00,
2013-06-07 00:05:00,53.8,45.3,30.04,WSW,250,0.0,0.0,73,0.00,,,0.00,Wunderground v.1.15,2013-06-07 07:05:00,
2013-06-07 00:06:00,53.8,45.0,30.04,WSW,250,0.0,0.0,72,0.00,,,0.00,Wunderground v.1.15,2013-06-07 07:06:00,
2013-06-07 00:07:00,53.8,45.0,30.04,WSW,250,0.0,0.0,72,0.00,,,0.00,Wunderground v.1.15,2013-06-07 07:07:00,
2013-06-07 00:08:00,53.7,45.2,30.04,WSW,250,0.0,0.0,73,0.00,,,0.00,Wunderground v.1.15,2013-06-07 07:08:00,
2013-06-07 00:11:00,53.4,45.0,30.04,WSW,250,0.0,0.0,73,0.00,,,0.00,Wunderground v.1.15,2013-06-07 07:11:00,
2013-06-07 00:13:00,53.4,45.7,30.04,WSW,250,0.0,0.0,75,0.00,,,0.00,Wunderground v.1.15,2013-06-07 07:13:00,
2013-06-07 00:14:00,53.3,45.6,30.04,WSW,250,0.0,0.0,75,0.00,,,0.00,Wunderground v.1.15,2013-06-07 07:14:00,
2013-06-07 00:17:00,53.3,45.6,30.04,WSW,250,0.0,0.0,75,0.00,,,0.00,Wunderground v.1.15,2013-06-07 07:17:00,
2013-06-07 00:18:00,53.3,45.6,30.04,WSW,250,0.0,0.0,75,0.00,,,0.00,Wunderground v.1.15,2013-06-07 07:18:00,
2013-06-07 00:20:00,53.3,45.2,30.04,WSW,250,0.0,0.0,74,0.00,,,0.00,Wunderground v.1.15,2013-06-07 07:20:00,
2013-06-07 00:22:00,53.1,45.0,30.04,WSW,250,0.0,0.0,74,0.00,,,0.00,Wunderground v.1.15,2013-06-07 07:22:00,
2013-06-07 00:24:00,53.0,45.6,30.04,WSW,250,0.0,0.0,76,0.00,,,0.00,Wunderground v.1.15,2013-06-07 07:24:00,
2013-06-07 00:27:00,52.8,45.4,30.04,WSW,250,0.0,0.0,76,0.00,,,0.00,Wunderground v.1.15,2013-06-07 07:27:00,
2013-06-07 00:30:00,52.8,44.7,30.04,WSW,250,0.0,0.0,74,0.00,,,0.00,Wunderground v.1.15,2013-06-07 07:30:00,
2013-06-07 00:31:00,52.7,44.6,30.04,WSW,250,0.0,0.0,74,0.00,,,0.00,Wunderground v.1.15,2013-06-07 07:31:00,
2013-06-07 00:34:00,52.7,45.3,30.03,WSW,250,0.0,0.0,76,0.00,,,0.00,Wunderground v.1.15,2013-06-07 07:34:00,
2013-06-07 00:36:00,52.7,45.3,30.03,WSW,250,0.0,0.0,76,0.00,,,0.00,Wunderground v.1.15,2013-06-07 07:36:00,
2013-06-07 00:37:00,52.5,45.2,30.03,WSW,250,0.0,0.0,76,0.00,,,0.00,Wunderground v.1.15,2013-06-07 07:37:00,
2013-06-07 00:38:00,52.5,45.2,30.03,WSW,250,0.0,0.0,76,0.00,,,0.00,Wunderground v.1.15,2013-06-07 07:38:00,
2013-06-07 00:40:00,52.4,45.4,30.03,WSW,250,0.0,0.0,77,0.00,,,0.00,Wunderground v.1.15,2013-06-07 07:40:00,
2013-06-07 00:41:00,52.4,45.4,30.03,WSW,250,0.0,0.0,77,0.00,,,0.00,Wunderground v.1.15,2013-06-07 07:41:00,
2013-06-07 00:43:00,52.4,45.4,30.03,WSW,250,0.0,0.0,77,0.00,,,0.00,Wunderground v.1.15,2013-06-07 07:43:00,
2013-06-07 00:44:00,52.4,45.4,30.03,WSW,250,0.0,0.0,77,0.00,,,0.00,Wunderground v.1.15,2013-06-07 07:44:00,
2013-06-07 00:46:00,52.2,45.2,30.03,WSW,250,0.0,0.0,77,0.00,,,0.00,Wunderground v.1.15,2013-06-07 07:46:00,
2013-06-07 00:49:00,52.2,45.5,30.04,WSW,250,0.0,0.0,78,0.00,,,0.00,Wunderground v.1.15,2013-06-07 07:49:00,
2013-06-07 00:51:00,52.1,45.4,30.04,WSW,250,0.0,0.0,78,0.00,,,0.00,Wunderground v.1.15,2013-06-07 07:51:00,
2013-06-07 00:52:00,52.1,45.4,30.04,WSW,250,0.0,0.0,78,0.00,,,0.00,Wunderground v.1.15,2013-06-07 07:52:00,
2013-06-07 00:53:00,52.1,45.1,30.04,WSW,250,0.0,0.0,77,0.00,,,0.00,Wunderground v.1.15,2013-06-07 07:53:00,
2013-06-07 00:54:00,52.1,45.1,30.04,WSW,250,0.0,0.0,77,0.00,,,0.00,Wunderground v.1.15,2013-06-07 07:54:00,
2013-06-07 00:56:00,52.1,45.1,30.04,WSW,250,0.0,0.0,77,0.00,,,0.00,Wunderground v.1.15,2013-06-07 07:56:00,
2013-06-07 00:58:00,51.9,45.3,30.04,WSW,250,0.0,0.0,78,0.00,,,0.00,Wunderground v.1.15,2013-06-07 07:58:00,
2013-06-07 01:00:00,51.9,45.3,30.04,WSW,250,0.0,0.0,78,0.00,,,0.00,Wunderground v.1.15,2013-06-07 08:00:00,
2013-06-07 01:01:00,51.9,45.3,30.04,WSW,250,0.0,0.0,78,0.00,,,0.00,Wunderground v.1.15,2013-06-07 08:01:00,
2013-06-07 01:03:00,51.9,45.6,30.03,WSW,250,0.0,0.0,79,0.00,,,0.00,Wunderground v.1.15,2013-06-07 08:03:00,
2013-06-07 01:06:00,51.8,45.5,30.03,WSW,250,0.0,0.0,79,0.00,,,0.00,Wunderground v.1.15,2013-06-07 08:06:00,
2013-06-07 01:07:00,51.6,45.3,30.03,WSW,250,0.0,0.0,79,0.00,,,0.00,Wunderground v.1.15,2013-06-07 08:07:00,
2013-06-07 01:08:00,51.6,45.3,30.03,WSW,250,0.0,0.0,79,0.00,,,0.00,Wunderground v.1.15,2013-06-07 08:08:00,
2013-06-07 01:09:00,51.6,45.3,30.03,WSW,250,0.0,0.0,79,0.00,,,0.00,Wunderground v.1.15,2013-06-07 08:09:00,
2013-06-07 01:11:00,51.6,45.3,30.03,WSW,250,0.0,0.0,79,0.00,,,0.00,Wunderground v.1.15,2013-06-07 08:11:00,
2013-06-07 01:14:00,51.5,45.2,30.03,WSW,250,0.0,0.0,79,0.00,,,0.00,Wunderground v.1.15,2013-06-07 08:14:00,
2013-06-07 01:15:00,51.5,45.2,30.03,WSW,250,0.0,0.0,79,0.00,,,0.00,Wunderground v.1.15,2013-06-07 08:15:00,
2013-06-07 01:16:00,51.5,45.2,30.03,WSW,250,0.0,0.0,79,0.00,,,0.00,Wunderground v.1.15,2013-06-07 08:16:00,
2013-06-07 01:17:00,51.5,45.2,30.02,WSW,250,0.0,0.0,79,0.00,,,0.00,Wunderground v.1.15,2013-06-07 08:17:00,
2013-06-07 01:20:00,51.5,44.9,30.02,WSW,250,0.0,0.0,78,0.00,,,0.00,Wunderground v.1.15,2013-06-07 08:20:00,
2013-06-07 01:21:00,51.5,44.9,30.02,WSW,250,0.0,0.0,78,0.00,,,0.00,Wunderground v.1.15,2013-06-07 08:21:00,
2013-06-07 01:22:00,51.5,44.9,30.02,WSW,250,0.0,0.0,78,0.00,,,0.00,Wunderground v.1.15,2013-06-07 08:22:00,
2013-06-07 01:25:00,51.5,44.9,30.02,WSW,250,0.0,0.0,78,0.00,,,0.00,Wunderground v.1.15,2013-06-07 08:25:00,
2013-06-07 01:28:00,51.5,44.9,30.02,WSW,250,0.0,0.0,78,0.00,,,0.00,Wunderground v.1.15,2013-06-07 08:28:00,
2013-06-07 01:29:00,51.5,44.5,30.02,WSW,250,0.0,0.0,77,0.00,,,0.00,Wunderground v.1.15,2013-06-07 08:29:00,
2013-06-07 01:31:00,51.5,44.9,30.02,WSW,250,0.0,0.0,78,0.00,,,0.00,Wunderground v.1.15,2013-06-07 08:31:00,
2013-06-07 01:34:00,51.3,45.3,30.03,WSW,250,0.0,0.0,80,0.00,,,0.00,Wunderground v.1.15,2013-06-07 08:34:00,
2013-06-07 01:35:00,51.2,45.2,30.03,WSW,250,0.0,0.0,80,0.00,,,0.00,Wunderground v.1.15,2013-06-07 08:35:00,
2013-06-07 01:36:00,51.2,45.2,30.03,WSW,250,0.0,0.0,80,0.00,,,0.00,Wunderground v.1.15,2013-06-07 08:36:00,
2013-06-07 01:38:00,51.2,45.2,30.03,WSW,250,0.0,0.0,80,0.00,,,0.00,Wunderground v.1.15,2013-06-07 08:38:00,
2013-06-07 01:41:00,51.0,44.7,30.03,WSW,250,0.0,0.0,79,0.00,,,0.00,Wunderground v.1.15,2013-06-07 08:41:00,
2013-06-07 01:43:00,51.0,45.0,30.03,WSW,250,0.0,0.0,80,0.00,,,0.00,Wunderground v.1.15,2013-06-07 08:43:00,
2013-06-07 01:45:00,50.9,45.3,30.03,WSW,250,0.0,0.0,81,0.00,,,0.00,Wunderground v.1.15,2013-06-07 08:45:00,
2013-06-07 01:47:00,50.9,45.3,30.04,WSW,250,0.0,0.0,81,0.00,,,0.00,Wunderground v.1.15,2013-06-07 08:47:00,
2013-06-07 01:50:00,50.9,45.3,30.04,WSW,250,0.0,0.0,81,0.00,,,0.00,Wunderground v.1.15,2013-06-07 08:50:00,
2013-06-07 01:52:00,50.9,45.3,30.04,WSW,250,0.0,0.0,81,0.00,,,0.00,Wunderground v.1.15,2013-06-07 08:52:00,
2013-06-07 01:53:00,50.9,45.3,30.04,WSW,250,0.0,0.0,81,0.00,,,0.00,Wunderground v.1.15,2013-06-07 08:53:00,
2013-06-07 01:55:00,50.9,45.3,30.04,WSW,250,0.0,0.0,81,0.00,,,0.00,Wunderground v.1.15,2013-06-07 08:55:00,
2013-06-07 01:57:00,50.7,44.8,30.04,WSW,250,0.0,0.0,80,0.00,,,0.00,Wunderground v.1.15,2013-06-07 08:57:00,
2013-06-07 01:59:00,50.7,45.1,30.04,WSW,250,0.0,0.0,81,0.00,,,0.00,Wunderground v.1.15,2013-06-07 08:59:00,
2013-06-07 02:00:00,50.7,45.1,30.04,WSW,250,0.0,0.0,81,0.00,,,0.00,Wunderground v.1.15,2013-06-07 09:00:00,
2013-06-07 02:02:00,50.7,45.1,30.04,WSW,250,0.0,0.0,81,0.00,,,0.00,Wunderground v.1.15,2013-06-07 09:02:00,
2013-06-07 02:04:00,50.7,45.1,30.04,WSW,250,0.0,0.0,81,0.00,,,0.00,Wunderground v.1.15,2013-06-07 09:04:00,
2013-06-07 02:05:00,50.7,45.1,30.04,WSW,250,0.0,0.0,81,0.00,,,0.00,Wunderground v.1.15,2013-06-07 09:05:00,
2013-06-07 02:06:00,50.7,45.1,30.04,WSW,250,0.0,0.0,81,0.00,,,0.00,Wunderground v.1.15,2013-06-07 09:06:00,
2013-06-07 02:08:00,50.7,45.4,30.04,WSW,250,0.0,0.0,82,0.00,,,0.00,Wunderground v.1.15,2013-06-07 09:08:00,
2013-06-07 02:10:00,50.7,45.4,30.04,WSW,250,0.0,0.0,82,0.00,,,0.00,Wunderground v.1.15,2013-06-07 09:10:00,
2013-06-07 02:11:00,50.7,45.1,30.04,WSW,250,0.0,0.0,81,0.00,,,0.00,Wunderground v.1.15,2013-06-07 09:11:00,
2013-06-07 02:16:00,50.7,45.4,30.04,WSW,250,0.0,0.0,82,0.00,,,0.00,Wunderground v.1.15,2013-06-07 09:16:00,
2013-06-07 02:21:00,50.6,45.3,30.03,WSW,250,0.0,0.0,82,0.00,,,0.00,Wunderground v.1.15,2013-06-07 09:21:00,
2013-06-07 02:22:00,50.6,45.3,30.03,WSW,250,0.0,0.0,82,0.00,,,0.00,Wunderground v.1.15,2013-06-07 09:22:00,
2013-06-07 02:23:00,50.6,45.3,30.03,WSW,250,0.0,0.0,82,0.00,,,0.00,Wunderground v.1.15,2013-06-07 09:23:00,
2013-06-07 02:27:00,50.6,45.3,30.03,WSW,250,0.0,0.0,82,0.00,,,0.00,Wunderground v.1.15,2013-06-07 09:27:00,
2013-06-07 02:29:00,50.6,45.3,30.03,WSW,250,0.0,0.0,82,0.00,,,0.00,Wunderground v.1.15,2013-06-07 09:29:00,
2013-06-07 02:30:00,50.6,45.6,30.03,WSW,250,0.0,0.0,83,0.00,,,0.00,Wunderground v.1.15,2013-06-07 09:30:00,
2013-06-07 02:32:00,50.6,45.6,30.03,WSW,250,0.0,0.0,83,0.00,,,0.00,Wunderground v.1.15,2013-06-07 09:32:00,
2013-06-07 02:34:00,50.6,45.3,30.03,WSW,250,0.0,0.0,82,0.00,,,0.00,Wunderground v.1.15,2013-06-07 09:34:00,
2013-06-07 02:35:00,50.6,45.6,30.03,WSW,250,0.0,0.0,83,0.00,,,0.00,Wunderground v.1.15,2013-06-07 09:35:00,
2013-06-07 02:37:00,50.4,45.4,30.03,WSW,250,0.0,0.0,83,0.00,,,0.00,Wunderground v.1.15,2013-06-07 09:37:00,
2013-06-07 02:38:00,50.4,45.4,30.03,WSW,250,0.0,0.0,83,0.00,,,0.00,Wunderground v.1.15,2013-06-07 09:38:00,
2013-06-07 02:40:00,50.4,45.4,30.03,WSW,250,0.0,0.0,83,0.00,,,0.00,Wunderground v.1.15,2013-06-07 09:40:00,
2013-06-07 02:41:00,50.3,45.3,30.03,WSW,250,0.0,0.0,83,0.00,,,0.00,Wunderground v.1.15,2013-06-07 09:41:00,
2013-06-07 02:42:00,50.3,45.3,30.03,WSW,250,0.0,0.0,83,0.00,,,0.00,Wunderground v.1.15,2013-06-07 09:42:00,
2013-06-07 02:43:00,50.3,45.3,30.03,WSW,250,0.0,0.0,83,0.00,,,0.00,Wunderground v.1.15,2013-06-07 09:43:00,
2013-06-07 02:45:00,50.3,45.3,30.03,WSW,250,0.0,0.0,83,0.00,,,0.00,Wunderground v.1.15,2013-06-07 09:45:00,
2013-06-07 02:46:00,50.3,45.3,30.03,WSW,250,0.0,0.0,83,0.00,,,0.00,Wunderground v.1.15,2013-06-07 09:46:00,
2013-06-07 02:49:00,50.1,45.1,30.04,WSW,250,0.0,0.0,83,0.00,,,0.00,Wunderground v.1.15,2013-06-07 09:49:00,
2013-06-07 02:50:00,50.1,45.1,30.04,WSW,250,0.0,0.0,83,0.00,,,0.00,Wunderground v.1.15,2013-06-07 09:50:00,
2013-06-07 02:51:00,50.1,45.5,30.04,WSW,250,0.0,0.0,84,0.00,,,0.00,Wunderground v.1.15,2013-06-07 09:51:00,
2013-06-07 02:53:00,50.1,45.5,30.04,WSW,250,0.0,0.0,84,0.00,,,0.00,Wunderground v.1.15,2013-06-07 09:53:00,
2013-06-07 02:54:00,50.1,45.5,30.04,WSW,250,0.0,0.0,84,0.00,,,0.00,Wunderground v.1.15,2013-06-07 09:54:00,
2013-06-07 02:56:00,50.1,45.5,30.04,WSW,250,0.0,0.0,84,0.00,,,0.00,Wunderground v.1.15,2013-06-07 09:56:00,
2013-06-07 02:59:00,50.1,45.5,30.04,WSW,250,0.0,0.0,84,0.00,,,0.00,Wunderground v.1.15,2013-06-07 09:59:00,
2013-06-07 03:01:00,50.1,45.5,30.04,WSW,250,0.0,0.0,84,0.00,,,0.00,Wunderground v.1.15,2013-06-07 10:01:00,
2013-06-07 03:03:00,50.1,45.8,30.04,WSW,250,0.0,0.0,85,0.00,,,0.00,Wunderground v.1.15,2013-06-07 10:03:00,
2013-06-07 03:04:00,50.1,45.8,30.04,WSW,250,0.0,0.0,85,0.00,,,0.00,Wunderground v.1.15,2013-06-07 10:04:00,
2013-06-07 03:06:00,50.1,45.8,30.04,WSW,250,0.0,0.0,85,0.00,,,0.00,Wunderground v.1.15,2013-06-07 10:06:00,
2013-06-07 03:07:00,50.1,45.5,30.04,WSW,250,0.0,0.0,84,0.00,,,0.00,Wunderground v.1.15,2013-06-07 10:07:00,
2013-06-07 03:08:00,50.1,45.5,30.04,WSW,250,0.0,0.0,84,0.00,,,0.00,Wunderground v.1.15,2013-06-07 10:08:00,
2013-06-07 03:09:00,50.1,45.5,30.04,WSW,250,0.0,0.0,84,0.00,,,0.00,Wunderground v.1.15,2013-06-07 10:09:00,
2013-06-07 03:12:00,50.1,45.5,30.04,WSW,250,0.0,0.0,84,0.00,,,0.00,Wunderground v.1.15,2013-06-07 10:12:00,
2013-06-07 03:13:00,50.1,45.5,30.04,WSW,250,0.0,0.0,84,0.00,,,0.00,Wunderground v.1.15,2013-06-07 10:13:00,
2013-06-07 03:14:00,50.1,45.5,30.04,WSW,250,0.0,0.0,84,0.00,,,0.00,Wunderground v.1.15,2013-06-07 10:14:00,
2013-06-07 03:15:00,50.1,45.5,30.04,WSW,250,0.0,0.0,84,0.00,,,0.00,Wunderground v.1.15,2013-06-07 10:15:00,
2013-06-07 03:17:00,50.1,45.5,30.04,WSW,250,0.0,0.0,84,0.00,,,0.00,Wunderground v.1.15,2013-06-07 10:17:00,
2013-06-07 03:18:00,50.1,45.8,30.04,WSW,250,0.0,0.0,85,0.00,,,0.00,Wunderground v.1.15,2013-06-07 10:18:00,
2013-06-07 03:19:00,50.1,45.8,30.04,WSW,250,0.0,0.0,85,0.00,,,0.00,Wunderground v.1.15,2013-06-07 10:19:00,
2013-06-07 03:21:00,50.1,45.8,30.04,WSW,250,0.0,0.0,85,0.00,,,0.00,Wunderground v.1.15,2013-06-07 10:21:00,
2013-06-07 03:23:00,50.1,45.8,30.04,WSW,250,0.0,0.0,85,0.00,,,0.00,Wunderground v.1.15,2013-06-07 10:23:00,
2013-06-07 03:24:00,50.1,45.8,30.04,WSW,250,0.0,0.0,85,0.00,,,0.00,Wunderground v.1.15,2013-06-07 10:24:00,
2013-06-07 03:26:00,50.1,45.8,30.04,WSW,250,0.0,0.0,85,0.00,,,0.00,Wunderground v.1.15,2013-06-07 10:26:00,
2013-06-07 03:27:00,50.1,45.8,30.04,WSW,250,0.0,0.0,85,0.00,,,0.00,Wunderground v.1.15,2013-06-07 10:27:00,
2013-06-07 03:28:00,50.1,45.8,30.04,WSW,250,0.0,0.0,85,0.00,,,0.00,Wunderground v.1.15,2013-06-07 10:28:00,
2013-06-07 03:29:00,50.1,45.8,30.04,WSW,250,0.0,0.0,85,0.00,,,0.00,Wunderground v.1.15,2013-06-07 10:29:00,
2013-06-07 03:31:00,50.1,45.8,30.04,WSW,250,0.0,0.0,85,0.00,,,0.00,Wunderground v.1.15,2013-06-07 10:31:00,
2013-06-07 03:32:00,50.1,45.8,30.03,WSW,250,0.0,0.0,85,0.00,,,0.00,Wunderground v.1.15,2013-06-07 10:32:00,
2013-06-07 03:34:00,50.1,45.8,30.03,WSW,250,0.0,0.0,85,0.00,,,0.00,Wunderground v.1.15,2013-06-07 10:34:00,
2013-06-07 03:36:00,50.1,45.8,30.03,WSW,250,0.0,0.0,85,0.00,,,0.00,Wunderground v.1.15,2013-06-07 10:36:00,
2013-06-07 03:37:00,50.1,45.8,30.03,WSW,250,0.0,0.0,85,0.00,,,0.00,Wunderground v.1.15,2013-06-07 10:37:00,
2013-06-07 03:38:00,50.1,45.8,30.03,WSW,250,0.0,0.0,85,0.00,,,0.00,Wunderground v.1.15,2013-06-07 10:38:00,
2013-06-07 03:39:00,50.1,45.8,30.03,WSW,250,0.0,0.0,85,0.00,,,0.00,Wunderground v.1.15,2013-06-07 10:39:00,
2013-06-07 03:41:00,50.1,45.8,30.03,WSW,250,0.0,0.0,85,0.00,,,0.00,Wunderground v.1.15,2013-06-07 10:41:00,
2013-06-07 03:43:00,50.1,45.8,30.03,WSW,250,0.0,0.0,85,0.00,,,0.00,Wunderground v.1.15,2013-06-07 10:43:00,
2013-06-07 03:47:00,50.3,46.3,30.04,WSW,250,0.0,0.0,86,0.00,,,0.00,Wunderground v.1.15,2013-06-07 10:47:00,
2013-06-07 03:48:00,50.3,46.3,30.04,WSW,250,0.0,0.0,86,0.00,,,0.00,Wunderground v.1.15,2013-06-07 10:48:00,
2013-06-07 03:53:00,50.4,46.4,30.04,WSW,250,0.0,0.0,86,0.00,,,0.00,Wunderground v.1.15,2013-06-07 10:53:00,
2013-06-07 03:54:00,50.4,46.4,30.04,WSW,250,0.0,0.0,86,0.00,,,0.00,Wunderground v.1.15,2013-06-07 10:54:00,
2013-06-07 03:57:00,50.4,46.4,30.04,WSW,250,0.0,0.0,86,0.00,,,0.00,Wunderground v.1.15,2013-06-07 10:57:00,
2013-06-07 03:58:00,50.4,46.4,30.04,WSW,250,0.0,0.0,86,0.00,,,0.00,Wunderground v.1.15,2013-06-07 10:58:00,
2013-06-07 04:00:00,50.4,46.4,30.04,WSW,250,1.0,1.0,86,0.00,,,0.00,Wunderground v.1.15,2013-06-07 11:00:00,
2013-06-07 04:02:00,50.4,46.4,30.05,WSW,250,0.0,1.0,86,0.00,,,0.00,Wunderground v.1.15,2013-06-07 11:02:00,
2013-06-07 04:03:00,50.4,46.4,30.05,WSW,250,0.0,1.0,86,0.00,,,0.00,Wunderground v.1.15,2013-06-07 11:03:00,
2013-06-07 04:04:00,50.4,46.4,30.05,WSW,250,0.0,1.0,86,0.00,,,0.00,Wunderground v.1.15,2013-06-07 11:04:00,
2013-06-07 04:05:00,50.4,46.4,30.05,WSW,250,0.0,1.0,86,0.00,,,0.00,Wunderground v.1.15,2013-06-07 11:05:00,
2013-06-07 04:07:00,50.4,46.4,30.05,WSW,250,0.0,1.0,86,0.00,,,0.00,Wunderground v.1.15,2013-06-07 11:07:00,
2013-06-07 04:08:00,50.4,46.4,30.05,WSW,250,0.0,1.0,86,0.00,,,0.00,Wunderground v.1.15,2013-06-07 11:08:00,
2013-06-07 04:09:00,50.4,46.4,30.05,WSW,250,0.0,1.0,86,0.00,,,0.00,Wunderground v.1.15,2013-06-07 11:09:00,
2013-06-07 04:10:00,50.4,46.4,30.05,WSW,250,0.0,0.0,86,0.00,,,0.00,Wunderground v.1.15,2013-06-07 11:10:00,
2013-06-07 04:12:00,50.4,46.4,30.05,WSW,250,0.0,0.0,86,0.00,,,0.00,Wunderground v.1.15,2013-06-07 11:12:00,
2013-06-07 04:13:00,50.6,46.6,30.05,WSW,250,0.0,0.0,86,0.00,,,0.00,Wunderground v.1.15,2013-06-07 11:13:00,
2013-06-07 04:14:00,50.6,46.6,30.05,WSW,250,0.0,0.0,86,0.00,,,0.00,Wunderground v.1.15,2013-06-07 11:14:00,
2013-06-07 04:16:00,50.6,46.6,30.05,WSW,250,0.0,0.0,86,0.00,,,0.00,Wunderground v.1.15,2013-06-07 11:16:00,
2013-06-07 04:18:00,50.6,46.9,30.05,WSW,250,0.0,0.0,87,0.00,,,0.00,Wunderground v.1.15,2013-06-07 11:18:00,
2013-06-07 04:20:00,50.7,47.0,30.05,WSW,250,0.0,0.0,87,0.00,,,0.00,Wunderground v.1.15,2013-06-07 11:20:00,
2013-06-07 04:21:00,50.7,46.7,30.05,WSW,250,0.0,0.0,86,0.00,,,0.00,Wunderground v.1.15,2013-06-07 11:21:00,
2013-06-07 04:23:00,50.7,46.7,30.05,WSW,250,0.0,0.0,86,0.00,,,0.00,Wunderground v.1.15,2013-06-07 11:23:00,
2013-06-07 04:26:00,50.9,46.9,30.05,WSW,250,0.0,0.0,86,0.00,,,0.00,Wunderground v.1.15,2013-06-07 11:26:00,
2013-06-07 04:27:00,50.9,46.9,30.05,WSW,250,0.0,0.0,86,0.00,,,0.00,Wunderground v.1.15,2013-06-07 11:27:00,
2013-06-07 04:29:00,50.9,46.9,30.05,WSW,250,0.0,0.0,86,0.00,,,0.00,Wunderground v.1.15,2013-06-07 11:29:00,
2013-06-07 04:32:00,51.0,47.0,30.05,WSW,250,0.0,0.0,86,0.00,,,0.00,Wunderground v.1.15,2013-06-07 11:32:00,
2013-06-07 04:33:00,51.0,47.3,30.05,WSW,250,0.0,0.0,87,0.00,,,0.00,Wunderground v.1.15,2013-06-07 11:33:00,
2013-06-07 04:35:00,51.2,47.2,30.05,WSW,250,0.0,0.0,86,0.00,,,0.00,Wunderground v.1.15,2013-06-07 11:35:00,
2013-06-07 04:37:00,51.2,47.2,30.05,WSW,250,0.0,0.0,86,0.00,,,0.00,Wunderground v.1.15,2013-06-07 11:37:00,
2013-06-07 04:38:00,51.2,47.2,30.05,WSW,250,0.0,0.0,86,0.00,,,0.00,Wunderground v.1.15,2013-06-07 11:38:00,
2013-06-07 04:40:00,51.2,47.2,30.05,WSW,250,0.0,0.0,86,0.00,,,0.00,Wunderground v.1.15,2013-06-07 11:40:00,
2013-06-07 04:42:00,51.3,47.6,30.05,WSW,250,0.0,0.0,87,0.00,,,0.00,Wunderground v.1.15,2013-06-07 11:42:00,
2013-06-07 04:43:00,51.3,47.6,30.05,WSW,250,0.0,0.0,87,0.00,,,0.00,Wunderground v.1.15,2013-06-07 11:43:00,
2013-06-07 04:45:00,51.3,47.3,30.05,WSW,250,0.0,0.0,86,0.00,,,0.00,Wunderground v.1.15,2013-06-07 11:45:00,
2013-06-07 04:46:00,51.3,47.6,30.05,WSW,250,0.0,0.0,87,0.00,,,0.00,Wunderground v.1.15,2013-06-07 11:46:00,
2013-06-07 04:47:00,51.3,47.6,30.05,WSW,250,0.0,0.0,87,0.00,,,0.00,Wunderground v.1.15,2013-06-07 11:47:00,
2013-06-07 04:48:00,51.3,47.6,30.05,WSW,250,0.0,0.0,87,0.00,,,0.00,Wunderground v.1.15,2013-06-07 11:48:00,
2013-06-07 04:52:00,51.5,47.8,30.05,WSW,250,0.0,0.0,87,0.00,,,0.00,Wunderground v.1.15,2013-06-07 11:52:00,
2013-06-07 04:53:00,51.5,47.8,30.05,WSW,250,0.0,0.0,87,0.00,,,0.00,Wunderground v.1.15,2013-06-07 11:53:00,
2013-06-07 04:54:00,51.5,47.5,30.05,WSW,250,0.0,0.0,86,0.00,,,0.00,Wunderground v.1.15,2013-06-07 11:54:00,
2013-06-07 04:58:00,51.5,47.5,30.05,WSW,250,0.0,0.0,86,0.00,,,0.00,Wunderground v.1.15,2013-06-07 11:58:00,
2013-06-07 04:59:00,51.5,47.5,30.05,WSW,250,0.0,0.0,86,0.00,,,0.00,Wunderground v.1.15,2013-06-07 11:59:00,
2013-06-07 05:00:00,51.5,47.5,30.05,WSW,250,0.0,0.0,86,0.00,,,0.00,Wunderground v.1.15,2013-06-07 12:00:00,
2013-06-07 05:03:00,51.5,47.5,30.05,WSW,250,0.0,0.0,86,0.00,,,0.00,Wunderground v.1.15,2013-06-07 12:03:00,
2013-06-07 05:05:00,51.5,47.5,30.05,WSW,250,0.0,0.0,86,0.00,,,0.00,Wunderground v.1.15,2013-06-07 12:05:00,
2013-06-07 05:08:00,51.6,47.5,30.05,WSW,250,0.0,0.0,86,0.00,,,0.00,Wunderground v.1.15,2013-06-07 12:08:00,
2013-06-07 05:09:00,51.6,47.5,30.05,WSW,250,0.0,0.0,86,0.00,,,0.00,Wunderground v.1.15,2013-06-07 12:09:00,
2013-06-07 05:10:00,51.6,47.5,30.05,WSW,250,0.0,0.0,86,0.00,,,0.00,Wunderground v.1.15,2013-06-07 12:10:00,
2013-06-07 05:14:00,51.6,47.5,30.05,WSW,250,0.0,0.0,86,0.00,,,0.00,Wunderground v.1.15,2013-06-07 12:14:00,
2013-06-07 05:15:00,51.6,47.5,30.05,WSW,250,0.0,0.0,86,0.00,,,0.00,Wunderground v.1.15,2013-06-07 12:15:00,
2013-06-07 05:19:00,51.6,47.5,30.05,WSW,250,0.0,0.0,86,0.00,,,0.00,Wunderground v.1.15,2013-06-07 12:19:00,
2013-06-07 05:22:00,51.6,47.5,30.05,WSW,250,0.0,0.0,86,0.00,,,0.00,Wunderground v.1.15,2013-06-07 12:22:00,
2013-06-07 05:23:00,51.6,47.5,30.05,WSW,250,0.0,0.0,86,0.00,,,0.00,Wunderground v.1.15,2013-06-07 12:23:00,
2013-06-07 05:24:00,51.8,47.7,30.05,WSW,250,0.0,0.0,86,0.00,,,0.00,Wunderground v.1.15,2013-06-07 12:24:00,
2013-06-07 05:27:00,51.8,47.7,30.05,WSW,250,0.0,0.0,86,0.00,,,0.00,Wunderground v.1.15,2013-06-07 12:27:00,
2013-06-07 05:28:00,51.8,47.7,30.05,WSW,250,0.0,0.0,86,0.00,,,0.00,Wunderground v.1.15,2013-06-07 12:28:00,
2013-06-07 05:29:00,51.8,47.7,30.05,WSW,250,0.0,0.0,86,0.00,,,0.00,Wunderground v.1.15,2013-06-07 12:29:00,
2013-06-07 05:31:00,51.8,47.7,30.05,WSW,250,0.0,0.0,86,0.00,,,0.00,Wunderground v.1.15,2013-06-07 12:31:00,
2013-06-07 05:33:00,51.8,47.7,30.04,WSW,250,0.0,0.0,86,0.00,,,0.00,Wunderground v.1.15,2013-06-07 12:33:00,
2013-06-07 05:35:00,51.9,47.8,30.04,WSW,250,0.0,0.0,86,0.00,,,0.00,Wunderground v.1.15,2013-06-07 12:35:00,
2013-06-07 05:37:00,51.9,47.8,30.04,WSW,250,0.0,0.0,86,0.00,,,0.00,Wunderground v.1.15,2013-06-07 12:37:00,
2013-06-07 05:38:00,51.9,47.8,30.04,WSW,250,0.0,0.0,86,0.00,,,0.00,Wunderground v.1.15,2013-06-07 12:38:00,
2013-06-07 05:40:00,51.9,47.8,30.04,WSW,250,0.0,0.0,86,0.00,,,0.00,Wunderground v.1.15,2013-06-07 12:40:00,
2013-06-07 05:41:00,51.9,47.8,30.04,WSW,250,0.0,0.0,86,0.00,,,0.00,Wunderground v.1.15,2013-06-07 12:41:00,
2013-06-07 05:42:00,51.9,47.8,30.04,WSW,250,0.0,0.0,86,0.00,,,0.00,Wunderground v.1.15,2013-06-07 12:42:00,
2013-06-07 05:43:00,51.9,47.8,30.04,WSW,250,0.0,0.0,86,0.00,,,0.00,Wunderground v.1.15,2013-06-07 12:43:00,
2013-06-07 05:45:00,51.9,47.8,30.04,WSW,250,0.0,0.0,86,0.00,,,0.00,Wunderground v.1.15,2013-06-07 12:45:00,
2013-06-07 05:46:00,51.9,47.8,30.04,WSW,250,0.0,0.0,86,0.00,,,0.00,Wunderground v.1.15,2013-06-07 12:46:00,
2013-06-07 05:47:00,51.9,47.8,30.05,WSW,250,0.0,0.0,86,0.00,,,0.00,Wunderground v.1.15,2013-06-07 12:47:00,
2013-06-07 05:49:00,52.1,48.3,30.05,WSW,250,0.0,0.0,87,0.00,,,0.00,Wunderground v.1.15,2013-06-07 12:49:00,
2013-06-07 05:50:00,52.1,48.3,30.05,WSW,250,0.0,0.0,87,0.00,,,0.00,Wunderground v.1.15,2013-06-07 12:50:00,
2013-06-07 05:52:00,52.1,48.3,30.05,WSW,250,0.0,0.0,87,0.00,,,0.00,Wunderground v.1.15,2013-06-07 12:52:00,
2013-06-07 05:53:00,52.1,48.3,30.05,WSW,250,0.0,0.0,87,0.00,,,0.00,Wunderground v.1.15,2013-06-07 12:53:00,
2013-06-07 05:54:00,52.1,48.0,30.05,WSW,250,0.0,0.0,86,0.00,,,0.00,Wunderground v.1.15,2013-06-07 12:54:00,
2013-06-07 05:57:00,52.1,48.0,30.05,WSW,250,0.0,0.0,86,0.00,,,0.00,Wunderground v.1.15,2013-06-07 12:57:00,
2013-06-07 05:58:00,52.1,48.3,30.05,WSW,250,0.0,0.0,87,0.00,,,0.00,Wunderground v.1.15,2013-06-07 12:58:00,
2013-06-07 05:59:00,52.1,48.3,30.05,WSW,250,0.0,0.0,87,0.00,,,0.00,Wunderground v.1.15,2013-06-07 12:59:00,
2013-06-07 06:02:00,52.1,48.3,30.05,WSW,250,0.0,0.0,87,0.00,,,0.00,Wunderground v.1.15,2013-06-07 13:02:00,
2013-06-07 06:03:00,52.1,48.3,30.05,WSW,250,0.0,0.0,87,0.00,,,0.00,Wunderground v.1.15,2013-06-07 13:03:00,
2013-06-07 06:05:00,52.1,48.3,30.05,WSW,250,0.0,0.0,87,0.00,,,0.00,Wunderground v.1.15,2013-06-07 13:05:00,
2013-06-07 06:07:00,52.1,48.3,30.05,WSW,250,0.0,0.0,87,0.00,,,0.00,Wunderground v.1.15,2013-06-07 13:07:00,
2013-06-07 06:09:00,52.1,48.3,30.05,WSW,250,0.0,0.0,87,0.00,,,0.00,Wunderground v.1.15,2013-06-07 13:09:00,
2013-06-07 06:10:00,52.1,48.3,30.05,WSW,250,0.0,0.0,87,0.00,,,0.00,Wunderground v.1.15,2013-06-07 13:10:00,
2013-06-07 06:11:00,52.1,48.3,30.05,WSW,250,0.0,0.0,87,0.00,,,0.00,Wunderground v.1.15,2013-06-07 13:11:00,
2013-06-07 06:13:00,52.1,48.3,30.05,WSW,250,0.0,0.0,87,0.00,,,0.00,Wunderground v.1.15,2013-06-07 13:13:00,
2013-06-07 06:15:00,52.2,48.4,30.05,West,261,0.0,0.0,87,0.00,,,0.00,Wunderground v.1.15,2013-06-07 13:15:00,
2013-06-07 06:16:00,52.2,48.4,30.05,West,261,0.0,0.0,87,0.00,,,0.00,Wunderground v.1.15,2013-06-07 13:16:00,
2013-06-07 06:18:00,52.2,48.4,30.05,West,261,0.0,0.0,87,0.00,,,0.00,Wunderground v.1.15,2013-06-07 13:18:00,
2013-06-07 06:20:00,52.2,48.4,30.05,West,261,0.0,0.0,87,0.00,,,0.00,Wunderground v.1.15,2013-06-07 13:20:00,
2013-06-07 06:21:00,52.2,48.4,30.05,West,261,0.0,0.0,87,0.00,,,0.00,Wunderground v.1.15,2013-06-07 13:21:00,
2013-06-07 06:22:00,52.4,48.6,30.05,West,261,0.0,0.0,87,0.00,,,0.00,Wunderground v.1.15,2013-06-07 13:22:00,
2013-06-07 06:23:00,52.4,48.6,30.05,West,261,0.0,0.0,87,0.00,,,0.00,Wunderground v.1.15,2013-06-07 13:23:00,
2013-06-07 06:25:00,52.4,48.6,30.05,West,261,0.0,0.0,87,0.00,,,0.00,Wunderground v.1.15,2013-06-07 13:25:00,
2013-06-07 06:26:00,52.4,48.3,30.05,West,261,0.0,0.0,86,0.00,,,0.00,Wunderground v.1.15,2013-06-07 13:26:00,
2013-06-07 06:28:00,52.4,48.3,30.05,West,261,0.0,0.0,86,0.00,,,0.00,Wunderground v.1.15,2013-06-07 13:28:00,
2013-06-07 06:29:00,52.5,48.7,30.05,West,261,0.0,0.0,87,0.00,,,0.00,Wunderground v.1.15,2013-06-07 13:29:00,
2013-06-07 06:31:00,52.5,48.7,30.05,West,261,0.0,0.0,87,0.00,,,0.00,Wunderground v.1.15,2013-06-07 13:31:00,
2013-06-07 06:32:00,52.5,48.7,30.06,West,261,0.0,0.0,87,0.00,,,0.00,Wunderground v.1.15,2013-06-07 13:32:00,
2013-06-07 06:34:00,52.5,48.4,30.06,West,261,0.0,0.0,86,0.00,,,0.00,Wunderground v.1.15,2013-06-07 13:34:00,
2013-06-07 06:36:00,52.7,48.6,30.06,West,261,0.0,0.0,86,0.00,,,0.00,Wunderground v.1.15,2013-06-07 13:36:00,
2013-06-07 06:37:00,52.7,48.9,30.06,West,261,0.0,0.0,87,0.00,,,0.00,Wunderground v.1.15,2013-06-07 13:37:00,
2013-06-07 06:40:00,52.7,48.9,30.06,West,261,0.0,0.0,87,0.00,,,0.00,Wunderground v.1.15,2013-06-07 13:40:00,
2013-06-07 06:41:00,52.8,49.0,30.06,West,262,0.0,0.0,87,0.00,,,0.00,Wunderground v.1.15,2013-06-07 13:41:00,
2013-06-07 06:42:00,52.8,49.0,30.06,West,263,0.0,0.0,87,0.00,,,0.00,Wunderground v.1.15,2013-06-07 13:42:00,
2013-06-07 06:43:00,52.8,49.0,30.06,West,263,0.0,0.0,87,0.00,,,0.00,Wunderground v.1.15,2013-06-07 13:43:00,
2013-06-07 06:47:00,53.0,48.9,30.05,West,263,0.0,0.0,86,0.00,,,0.00,Wunderground v.1.15,2013-06-07 13:47:00,
2013-06-07 06:48:00,53.0,48.9,30.05,West,263,0.0,0.0,86,0.00,,,0.00,Wunderground v.1.15,2013-06-07 13:48:00,
2013-06-07 06:53:00,53.1,48.7,30.05,West,263,0.0,0.0,85,0.00,,,0.00,Wunderground v.1.15,2013-06-07 13:53:00,
2013-06-07 06:54:00,53.3,48.9,30.05,West,263,0.0,0.0,85,0.00,,,0.00,Wunderground v.1.15,2013-06-07 13:54:00,
2013-06-07 06:55:00,53.3,49.2,30.05,West,263,0.0,0.0,86,0.00,,,0.00,Wunderground v.1.15,2013-06-07 13:55:00,
2013-06-07 06:58:00,53.3,48.9,30.05,West,263,0.0,0.0,85,0.00,,,0.00,Wunderground v.1.15,2013-06-07 13:58:00,
2013-06-07 07:00:00,53.4,49.0,30.05,West,263,0.0,0.0,85,0.00,,,0.00,Wunderground v.1.15,2013-06-07 14:00:00,
2013-06-07 07:03:00,53.6,49.2,30.04,West,263,0.0,0.0,85,0.00,,,0.00,Wunderground v.1.15,2013-06-07 14:03:00,
2013-06-07 07:04:00,53.6,49.2,30.04,West,263,0.0,0.0,85,0.00,,,0.00,Wunderground v.1.15,2013-06-07 14:04:00,
2013-06-07 07:05:00,53.7,49.0,30.04,West,263,0.0,0.0,84,0.00,,,0.00,Wunderground v.1.15,2013-06-07 14:05:00,
2013-06-07 07:09:00,53.8,49.1,30.04,West,263,0.0,0.0,84,0.00,,,0.00,Wunderground v.1.15,2013-06-07 14:09:00,
2013-06-07 07:10:00,54.0,49.3,30.04,West,263,0.0,0.0,84,0.00,,,0.00,Wunderground v.1.15,2013-06-07 14:10:00,
2013-06-07 07:12:00,54.0,49.3,30.04,West,263,0.0,0.0,84,0.00,,,0.00,Wunderground v.1.15,2013-06-07 14:12:00,
2013-06-07 07:14:00,54.1,49.4,30.04,West,267,0.0,0.0,84,0.00,,,0.00,Wunderground v.1.15,2013-06-07 14:14:00,
2013-06-07 07:15:00,54.1,49.4,30.04,West,267,0.0,0.0,84,0.00,,,0.00,Wunderground v.1.15,2013-06-07 14:15:00,
2013-06-07 07:17:00,54.4,49.7,30.06,West,267,0.0,0.0,84,0.00,,,0.00,Wunderground v.1.15,2013-06-07 14:17:00,
2013-06-07 07:18:00,54.4,50.0,30.06,West,267,0.0,0.0,85,0.00,,,0.00,Wunderground v.1.15,2013-06-07 14:18:00,
2013-06-07 07:20:00,54.6,50.2,30.06,West,267,0.0,0.0,85,0.00,,,0.00,Wunderground v.1.15,2013-06-07 14:20:00,
2013-06-07 07:21:00,54.6,50.2,30.06,West,267,0.0,0.0,85,0.00,,,0.00,Wunderground v.1.15,2013-06-07 14:21:00,
2013-06-07 07:22:00,54.6,50.2,30.06,West,267,0.0,0.0,85,0.00,,,0.00,Wunderground v.1.15,2013-06-07 14:22:00,
2013-06-07 07:23:00,54.7,50.0,30.06,West,267,0.0,0.0,84,0.00,,,0.00,Wunderground v.1.15,2013-06-07 14:23:00,
2013-06-07 07:24:00,54.7,50.0,30.06,West,267,0.0,0.0,84,0.00,,,0.00,Wunderground v.1.15,2013-06-07 14:24:00,
2013-06-07 07:25:00,54.9,50.2,30.06,West,267,0.0,0.0,84,0.00,,,0.00,Wunderground v.1.15,2013-06-07 14:25:00,
2013-06-07 07:26:00,54.9,50.2,30.06,West,267,0.0,0.0,84,0.00,,,0.00,Wunderground v.1.15,2013-06-07 14:26:00,
2013-06-07 07:27:00,54.9,50.2,30.06,West,267,0.0,0.0,84,0.00,,,0.00,Wunderground v.1.15,2013-06-07 14:27:00,
2013-06-07 07:29:00,55.0,49.9,30.06,West,267,0.0,0.0,83,0.00,,,0.00,Wunderground v.1.15,2013-06-07 14:29:00,
2013-06-07 07:31:00,55.0,49.9,30.06,West,267,0.0,0.0,83,0.00,,,0.00,Wunderground v.1.15,2013-06-07 14:31:00,
2013-06-07 07:32:00,55.2,50.4,30.05,West,267,0.0,0.0,84,0.00,,,0.00,Wunderground v.1.15,2013-06-07 14:32:00,
2013-06-07 07:34:00,55.2,50.1,30.05,West,267,0.0,0.0,83,0.00,,,0.00,Wunderground v.1.15,2013-06-07 14:34:00,
2013-06-07 07:35:00,55.3,50.2,30.05,West,267,0.0,0.0,83,0.00,,,0.00,Wunderground v.1.15,2013-06-07 14:35:00,
2013-06-07 07:37:00,55.3,50.2,30.05,West,267,0.0,0.0,83,0.00,,,0.00,Wunderground v.1.15,2013-06-07 14:37:00,
2013-06-07 07:38:00,55.5,50.4,30.05,West,267,0.0,0.0,83,0.00,,,0.00,Wunderground v.1.15,2013-06-07 14:38:00,
2013-06-07 07:39:00,55.5,49.4,30.05,West,267,0.0,0.0,80,0.00,,,0.00,Wunderground v.1.15,2013-06-07 14:39:00,
2013-06-07 07:40:00,55.5,49.4,30.05,West,267,0.0,0.0,80,0.00,,,0.00,Wunderground v.1.15,2013-06-07 14:40:00,
2013-06-07 07:42:00,55.6,50.2,30.05,West,267,0.0,0.0,82,0.00,,,0.00,Wunderground v.1.15,2013-06-07 14:42:00,
2013-06-07 07:43:00,55.6,50.2,30.05,West,267,0.0,0.0,82,0.00,,,0.00,Wunderground v.1.15,2013-06-07 14:43:00,
2013-06-07 07:45:00,55.8,50.4,30.05,West,267,0.0,0.0,82,0.00,,,0.00,Wunderground v.1.15,2013-06-07 14:45:00,
2013-06-07 07:47:00,55.9,49.5,30.06,West,267,0.0,0.0,79,0.00,,,0.00,Wunderground v.1.15,2013-06-07 14:47:00,
2013-06-07 07:48:00,55.9,49.5,30.06,West,267,0.0,0.0,79,0.00,,,0.00,Wunderground v.1.15,2013-06-07 14:48:00,
2013-06-07 07:50:00,56.1,48.6,30.06,West,267,0.0,0.0,76,0.00,,,0.00,Wunderground v.1.15,2013-06-07 14:50:00,
2013-06-07 07:52:00,56.2,49.4,30.06,West,267,0.0,0.0,78,0.00,,,0.00,Wunderground v.1.15,2013-06-07 14:52:00,
2013-06-07 07:53:00,56.4,50.0,30.06,West,281,0.0,0.0,79,0.00,,,0.00,Wunderground v.1.15,2013-06-07 14:53:00,
2013-06-07 07:54:00,56.4,50.0,30.06,West,281,0.0,0.0,79,0.00,,,0.00,Wunderground v.1.15,2013-06-07 14:54:00,
2013-06-07 07:55:00,56.4,50.6,30.06,West,281,0.0,0.0,81,0.00,,,0.00,Wunderground v.1.15,2013-06-07 14:55:00,
2013-06-07 07:56:00,56.5,50.7,30.06,West,281,0.0,0.0,81,0.00,,,0.00,Wunderground v.1.15,2013-06-07 14:56:00,
2013-06-07 07:58:00,56.7,50.6,30.06,West,281,0.0,0.0,80,0.00,,,0.00,Wunderground v.1.15,2013-06-07 14:58:00,
2013-06-07 07:59:00,56.7,49.6,30.06,West,281,0.0,0.0,77,0.00,,,0.00,Wunderground v.1.15,2013-06-07 14:59:00,
2013-06-07 08:03:00,57.0,49.5,30.05,West,281,0.0,0.0,76,0.00,,,0.00,Wunderground v.1.15,2013-06-07 15:03:00,
2013-06-07 08:05:00,57.0,47.7,30.05,NW,304,0.0,1.0,71,0.00,,,0.00,Wunderground v.1.15,2013-06-07 15:05:00,
2013-06-07 08:08:00,57.2,48.6,30.05,NW,304,0.0,1.0,73,0.00,,,0.00,Wunderground v.1.15,2013-06-07 15:08:00,
2013-06-07 08:10:00,57.2,47.9,30.05,NW,304,0.0,0.0,71,0.00,,,0.00,Wunderground v.1.15,2013-06-07 15:10:00,
2013-06-07 08:11:00,57.4,48.4,30.05,NW,304,0.0,0.0,72,0.00,,,0.00,Wunderground v.1.15,2013-06-07 15:11:00,
2013-06-07 08:13:00,57.4,48.8,30.05,NW,304,0.0,0.0,73,0.00,,,0.00,Wunderground v.1.15,2013-06-07 15:13:00,
2013-06-07 08:14:00,57.5,48.5,30.05,NW,304,0.0,0.0,72,0.00,,,0.00,Wunderground v.1.15,2013-06-07 15:14:00,
2013-06-07 08:16:00,57.5,47.4,30.05,NW,304,0.0,0.0,69,0.00,,,0.00,Wunderground v.1.15,2013-06-07 15:16:00,
2013-06-07 08:17:00,57.5,47.0,30.06,NW,304,0.0,0.0,68,0.00,,,0.00,Wunderground v.1.15,2013-06-07 15:17:00,
2013-06-07 08:19:00,57.7,48.0,30.06,NW,304,0.0,0.0,70,0.00,,,0.00,Wunderground v.1.15,2013-06-07 15:19:00,
2013-06-07 08:20:00,57.7,48.0,30.06,NW,304,0.0,0.0,70,0.00,,,0.00,Wunderground v.1.15,2013-06-07 15:20:00,
2013-06-07 08:21:00,57.7,47.6,30.06,NW,304,0.0,0.0,69,0.00,,,0.00,Wunderground v.1.15,2013-06-07 15:21:00,
2013-06-07 08:23:00,57.8,48.8,30.06,NW,305,0.0,0.0,72,0.00,,,0.00,Wunderground v.1.15,2013-06-07 15:23:00,
2013-06-07 08:25:00,57.8,48.8,30.06,NW,305,0.0,0.0,72,0.00,,,0.00,Wunderground v.1.15,2013-06-07 15:25:00,
2013-06-07 08:26:00,58.0,47.1,30.06,NW,305,0.0,0.0,67,0.00,,,0.00,Wunderground v.1.15,2013-06-07 15:26:00,
2013-06-07 08:28:00,58.0,47.5,30.06,WNW,296,0.0,1.0,68,0.00,,,0.00,Wunderground v.1.15,2013-06-07 15:28:00,
2013-06-07 08:30:00,58.1,48.0,30.06,WNW,296,0.0,0.0,69,0.00,,,0.00,Wunderground v.1.15,2013-06-07 15:30:00,
2013-06-07 08:32:00,58.1,48.4,30.06,WNW,296,0.0,0.0,70,0.00,,,0.00,Wunderground v.1.15,2013-06-07 15:32:00,
2013-06-07 08:34:00,58.3,48.2,30.06,WNW,296,0.0,0.0,69,0.00,,,0.00,Wunderground v.1.15,2013-06-07 15:34:00,
2013-06-07 08:35:00,58.5,48.7,30.06,WNW,296,0.0,0.0,70,0.00,,,0.00,Wunderground v.1.15,2013-06-07 15:35:00,
2013-06-07 08:37:00,58.5,48.7,30.06,WNW,296,0.0,0.0,70,0.00,,,0.00,Wunderground v.1.15,2013-06-07 15:37:00,
2013-06-07 08:40:00,58.8,49.4,30.06,NW,304,0.0,0.0,71,0.00,,,0.00,Wunderground v.1.15,2013-06-07 15:40:00,
2013-06-07 08:41:00,58.8,48.3,30.06,NW,304,1.0,1.0,68,0.00,,,0.00,Wunderground v.1.15,2013-06-07 15:41:00,
2013-06-07 08:42:00,58.8,47.9,30.06,NNE,25,0.0,2.0,67,0.00,,,0.00,Wunderground v.1.15,2013-06-07 15:42:00,
2013-06-07 08:45:00,59.1,47.7,30.06,NNE,24,0.0,2.0,66,0.00,,,0.00,Wunderground v.1.15,2013-06-07 15:45:00,
2013-06-07 08:46:00,59.1,48.1,30.06,NNE,24,0.0,2.0,67,0.00,,,0.00,Wunderground v.1.15,2013-06-07 15:46:00,
2013-06-07 08:47:00,59.1,47.3,30.06,NNE,24,0.0,2.0,65,0.00,,,0.00,Wunderground v.1.15,2013-06-07 15:47:00,
2013-06-07 08:48:00,59.2,47.4,30.06,NNE,24,0.0,2.0,65,0.00,,,0.00,Wunderground v.1.15,2013-06-07 15:48:00,
2013-06-07 08:52:00,59.4,48.8,30.06,NNE,21,4.0,4.0,68,0.00,,,0.00,Wunderground v.1.15,2013-06-07 15:52:00,
2013-06-07 08:53:00,59.5,48.9,30.06,NNE,25,0.0,4.0,68,0.00,,,0.00,Wunderground v.1.15,2013-06-07 15:53:00,
2013-06-07 08:54:00,59.5,48.9,30.06,NNE,25,1.0,4.0,68,0.00,,,0.00,Wunderground v.1.15,2013-06-07 15:54:00,
2013-06-07 08:57:00,59.7,48.7,30.06,NNE,29,1.0,4.0,67,0.00,,,0.00,Wunderground v.1.15,2013-06-07 15:57:00,
2013-06-07 08:58:00,59.7,48.3,30.06,NNE,29,0.0,4.0,66,0.00,,,0.00,Wunderground v.1.15,2013-06-07 15:58:00,
2013-06-07 08:59:00,59.8,48.8,30.06,NNE,29,0.0,4.0,67,0.00,,,0.00,Wunderground v.1.15,2013-06-07 15:59:00,
2013-06-07 09:03:00,60.0,49.0,30.05,North,5,0.0,5.0,67,0.00,,,0.00,Wunderground v.1.15,2013-06-07 16:03:00,
2013-06-07 09:05:00,60.1,48.3,30.05,ENE,59,0.0,5.0,65,0.00,,,0.00,Wunderground v.1.15,2013-06-07 16:05:00,
2013-06-07 09:08:00,60.3,49.7,30.05,NNE,25,2.0,5.0,68,0.00,,,0.00,Wunderground v.1.15,2013-06-07 16:08:00,
2013-06-07 09:09:00,60.4,49.0,30.05,NNE,25,2.0,5.0,66,0.00,,,0.00,Wunderground v.1.15,2013-06-07 16:09:00,
2013-06-07 09:10:00,60.4,49.0,30.05,NNE,29,0.0,1.0,66,0.00,,,0.00,Wunderground v.1.15,2013-06-07 16:10:00,
2013-06-07 09:11:00,60.6,49.6,30.05,NNE,29,1.0,1.0,67,0.00,,,0.00,Wunderground v.1.15,2013-06-07 16:11:00,
2013-06-07 09:14:00,60.7,49.7,30.05,NNW,334,0.0,6.0,67,0.00,,,0.00,Wunderground v.1.15,2013-06-07 16:14:00,
2013-06-07 09:15:00,60.9,48.6,30.05,North,11,1.0,6.0,64,0.00,,,0.00,Wunderground v.1.15,2013-06-07 16:15:00,
2013-06-07 09:16:00,60.9,49.1,30.05,North,349,0.0,6.0,65,0.00,,,0.00,Wunderground v.1.15,2013-06-07 16:16:00,
2013-06-07 09:20:00,61.0,49.6,30.06,North,5,0.0,1.0,66,0.00,,,0.00,Wunderground v.1.15,2013-06-07 16:20:00,
2013-06-07 09:21:00,61.0,49.1,30.06,NE,38,2.0,4.0,65,0.00,,,0.00,Wunderground v.1.15,2013-06-07 16:21:00,
2013-06-07 09:22:00,61.0,48.7,30.06,WNW,299,1.0,4.0,64,0.00,,,0.00,Wunderground v.1.15,2013-06-07 16:22:00,
2013-06-07 09:26:00,61.0,49.6,30.06,NW,310,0.0,4.0,66,0.00,,,0.00,Wunderground v.1.15,2013-06-07 16:26:00,
2013-06-07 09:28:00,61.2,48.9,30.06,North,355,1.0,4.0,64,0.00,,,0.00,Wunderground v.1.15,2013-06-07 16:28:00,
2013-06-07 09:29:00,61.0,48.3,30.06,NE,53,0.0,4.0,63,0.00,,,0.00,Wunderground v.1.15,2013-06-07 16:29:00,
2013-06-07 09:31:00,61.2,48.5,30.06,SSE,152,0.0,1.0,63,0.00,,,0.00,Wunderground v.1.15,2013-06-07 16:31:00,
2013-06-07 09:33:00,61.2,49.7,30.06,SSE,152,0.0,1.0,66,0.00,,,0.00,Wunderground v.1.15,2013-06-07 16:33:00,
2013-06-07 09:36:00,61.2,48.9,30.06,SE,130,1.0,2.0,64,0.00,,,0.00,Wunderground v.1.15,2013-06-07 16:36:00,
2013-06-07 09:37:00,61.4,49.9,30.06,SE,130,0.0,2.0,66,0.00,,,0.00,Wunderground v.1.15,2013-06-07 16:37:00,
2013-06-07 09:38:00,61.4,49.9,30.06,SE,130,0.0,2.0,66,0.00,,,0.00,Wunderground v.1.15,2013-06-07 16:38:00,
2013-06-07 09:41:00,61.4,49.5,30.06,ESE,117,0.0,1.0,65,0.00,,,0.00,Wunderground v.1.15,2013-06-07 16:41:00,
2013-06-07 09:42:00,61.5,49.6,30.06,East,92,0.0,1.0,65,0.00,,,0.00,Wunderground v.1.15,2013-06-07 16:42:00,
2013-06-07 09:43:00,61.5,49.6,30.06,East,92,0.0,1.0,65,0.00,,,0.00,Wunderground v.1.15,2013-06-07 16:43:00,
2013-06-07 09:44:00,61.5,49.2,30.06,NNE,30,1.0,1.0,64,0.00,,,0.00,Wunderground v.1.15,2013-06-07 16:44:00,
2013-06-07 09:46:00,61.7,49.8,30.06,NE,53,1.0,1.0,65,0.00,,,0.00,Wunderground v.1.15,2013-06-07 16:46:00,
2013-06-07 09:48:00,61.7,49.0,30.06,ESE,120,0.0,1.0,63,0.00,,,0.00,Wunderground v.1.15,2013-06-07 16:48:00,
2013-06-07 09:49:00,61.7,49.0,30.06,South,189,1.0,1.0,63,0.00,,,0.00,Wunderground v.1.15,2013-06-07 16:49:00,
2013-06-07 09:50:00,61.7,48.5,30.06,South,189,0.0,0.0,62,0.00,,,0.00,Wunderground v.1.15,2013-06-07 16:50:00,
2013-06-07 09:52:00,61.7,48.5,30.06,South,189,0.0,2.0,62,0.00,,,0.00,Wunderground v.1.15,2013-06-07 16:52:00,
2013-06-07 09:53:00,61.7,49.4,30.06,ESE,106,0.0,2.0,64,0.00,,,0.00,Wunderground v.1.15,2013-06-07 16:53:00,
2013-06-07 09:55:00,61.7,49.4,30.06,SE,145,1.0,2.0,64,0.00,,,0.00,Wunderground v.1.15,2013-06-07 16:55:00,
2013-06-07 09:57:00,61.8,49.5,30.06,SSE,155,1.0,2.0,64,0.00,,,0.00,Wunderground v.1.15,2013-06-07 16:57:00,
2013-06-07 09:59:00,61.8,49.1,30.06,SE,124,0.0,4.0,63,0.00,,,0.00,Wunderground v.1.15,2013-06-07 16:59:00,
2013-06-07 10:00:00,61.8,49.1,30.06,NNW,342,0.0,0.0,63,0.00,,,0.00,Wunderground v.1.15,2013-06-07 17:00:00,
2013-06-07 10:01:00,61.7,49.0,30.06,NNW,342,0.0,0.0,63,0.00,,,0.00,Wunderground v.1.15,2013-06-07 17:01:00,
2013-06-07 10:03:00,61.7,48.5,30.07,SE,132,0.0,1.0,62,0.00,,,0.00,Wunderground v.1.15,2013-06-07 17:03:00,
2013-06-07 10:04:00,61.7,48.1,30.07,SE,132,0.0,1.0,61,0.00,,,0.00,Wunderground v.1.15,2013-06-07 17:04:00,
2013-06-07 10:07:00,61.7,48.5,30.07,SE,132,0.0,2.0,62,0.00,,,0.00,Wunderground v.1.15,2013-06-07 17:07:00,
2013-06-07 10:08:00,61.7,49.0,30.07,SE,146,4.0,4.0,63,0.00,,,0.00,Wunderground v.1.15,2013-06-07 17:08:00,
2013-06-07 10:09:00,61.7,48.5,30.07,ESE,119,2.0,2.0,62,0.00,,,0.00,Wunderground v.1.15,2013-06-07 17:09:00,
2013-06-07 10:13:00,61.5,47.0,30.07,SSE,165,4.0,4.0,59,0.00,,,0.00,Wunderground v.1.15,2013-06-07 17:13:00,
2013-06-07 10:14:00,61.5,47.5,30.07,SSE,159,2.0,5.0,60,0.00,,,0.00,Wunderground v.1.15,2013-06-07 17:14:00,
2013-06-07 10:15:00,61.5,47.0,30.07,SSE,152,0.0,5.0,59,0.00,,,0.00,Wunderground v.1.15,2013-06-07 17:15:00,
2013-06-07 10:19:00,61.4,44.6,30.06,SSE,150,0.0,5.0,54,0.00,,,0.00,Wunderground v.1.15,2013-06-07 17:19:00,
2013-06-07 10:21:00,61.4,44.6,30.06,SSE,150,0.0,1.0,54,0.00,,,0.00,Wunderground v.1.15,2013-06-07 17:21:00,
2013-06-07 10:24:00,61.4,44.1,30.06,NNE,16,0.0,4.0,53,0.00,,,0.00,Wunderground v.1.15,2013-06-07 17:24:00,
2013-06-07 10:27:00,61.2,43.4,30.06,NNE,16,0.0,4.0,52,0.00,,,0.00,Wunderground v.1.15,2013-06-07 17:27:00,
2013-06-07 10:28:00,61.2,42.9,30.06,North,5,2.0,4.0,51,0.00,,,0.00,Wunderground v.1.15,2013-06-07 17:28:00,
2013-06-07 10:30:00,61.2,42.4,30.06,NE,52,1.0,1.0,50,0.00,,,0.00,Wunderground v.1.15,2013-06-07 17:30:00,
2013-06-07 10:31:00,61.2,45.4,30.06,SE,133,0.0,2.0,56,0.00,,,0.00,Wunderground v.1.15,2013-06-07 17:31:00,
2013-06-07 10:33:00,61.2,45.4,30.08,SE,133,0.0,2.0,56,0.00,,,0.00,Wunderground v.1.15,2013-06-07 17:33:00,
2013-06-07 10:35:00,61.4,46.5,30.08,SE,133,0.0,2.0,58,0.00,,,0.00,Wunderground v.1.15,2013-06-07 17:35:00,
2013-06-07 10:36:00,61.4,46.5,30.08,SE,133,0.0,2.0,58,0.00,,,0.00,Wunderground v.1.15,2013-06-07 17:36:00,
2013-06-07 10:37:00,61.4,45.6,30.08,SE,133,1.0,2.0,56,0.00,,,0.00,Wunderground v.1.15,2013-06-07 17:37:00,
2013-06-07 10:38:00,61.4,45.6,30.08,SE,141,0.0,2.0,56,0.00,,,0.00,Wunderground v.1.15,2013-06-07 17:38:00,
2013-06-07 10:40:00,61.4,44.6,30.08,SE,141,0.0,1.0,54,0.00,,,0.00,Wunderground v.1.15,2013-06-07 17:40:00,
2013-06-07 10:43:00,61.4,45.1,30.08,SSE,168,5.0,5.0,55,0.00,,,0.00,Wunderground v.1.15,2013-06-07 17:43:00,
2013-06-07 10:44:00,61.4,43.1,30.08,SE,128,0.0,5.0,51,0.00,,,0.00,Wunderground v.1.15,2013-06-07 17:44:00,
2013-06-07 10:48:00,61.4,45.1,30.09,SE,141,0.0,5.0,55,0.00,,,0.00,Wunderground v.1.15,2013-06-07 17:48:00,
2013-06-07 10:49:00,61.4,44.1,30.09,SE,131,0.0,5.0,53,0.00,,,0.00,Wunderground v.1.15,2013-06-07 17:49:00,
2013-06-07 10:50:00,61.4,44.6,30.09,SE,139,1.0,2.0,54,0.00,,,0.00,Wunderground v.1.15,2013-06-07 17:50:00,
2013-06-07 10:53:00,61.4,44.6,30.09,SE,139,0.0,2.0,54,0.00,,,0.00,Wunderground v.1.15,2013-06-07 17:53:00,
2013-06-07 10:54:00,61.4,45.1,30.09,SE,139,0.0,2.0,55,0.00,,,0.00,Wunderground v.1.15,2013-06-07 17:54:00,
2013-06-07 10:55:00,61.4,45.1,30.09,SE,139,0.0,2.0,55,0.00,,,0.00,Wunderground v.1.15,2013-06-07 17:55:00,
2013-06-07 10:59:00,61.4,44.1,30.09,SE,139,0.0,2.0,53,0.00,,,0.00,Wunderground v.1.15,2013-06-07 17:59:00,
2013-06-07 11:00:00,61.4,45.6,30.09,SE,139,0.0,0.0,56,0.00,,,0.00,Wunderground v.1.15,2013-06-07 18:00:00,
2013-06-07 11:03:00,61.4,44.1,30.09,SE,139,0.0,1.0,53,0.00,,,0.00,Wunderground v.1.15,2013-06-07 18:03:00,
2013-06-07 11:04:00,61.4,45.1,30.09,SE,139,0.0,1.0,55,0.00,,,0.00,Wunderground v.1.15,2013-06-07 18:04:00,
2013-06-07 11:06:00,61.5,45.7,30.09,SE,139,0.0,1.0,56,0.00,,,0.00,Wunderground v.1.15,2013-06-07 18:06:00,
2013-06-07 11:08:00,61.5,43.7,30.09,North,11,1.0,3.0,52,0.00,,,0.00,Wunderground v.1.15,2013-06-07 18:08:00,
2013-06-07 11:10:00,61.5,42.7,30.09,NNE,22,0.0,1.0,50,0.00,,,0.00,Wunderground v.1.15,2013-06-07 18:10:00,
2013-06-07 11:11:00,61.5,44.2,30.09,SE,146,0.0,1.0,53,0.00,,,0.00,Wunderground v.1.15,2013-06-07 18:11:00,
2013-06-07 11:12:00,61.5,44.2,30.09,SE,140,1.0,1.0,53,0.00,,,0.00,Wunderground v.1.15,2013-06-07 18:12:00,
2013-06-07 11:14:00,61.5,42.7,30.09,SSE,163,0.0,4.0,50,0.00,,,0.00,Wunderground v.1.15,2013-06-07 18:14:00,
2013-06-07 11:17:00,61.7,42.9,30.09,SE,139,0.0,4.0,50,0.00,,,0.00,Wunderground v.1.15,2013-06-07 18:17:00,
2013-06-07 11:18:00,61.7,42.9,30.09,SE,139,0.0,4.0,50,0.00,,,0.00,Wunderground v.1.15,2013-06-07 18:18:00,
2013-06-07 11:21:00,61.8,44.0,30.09,SE,135,0.0,2.0,52,0.00,,,0.00,Wunderground v.1.15,2013-06-07 18:21:00,
2013-06-07 11:23:00,61.8,44.0,30.09,NNW,344,0.0,2.0,52,0.00,,,0.00,Wunderground v.1.15,2013-06-07 18:23:00,
2013-06-07 11:29:00,62.1,42.7,30.09,SSE,147,0.0,4.0,49,0.00,,,0.00,Wunderground v.1.15,2013-06-07 18:29:00,
2013-06-07 11:30:00,62.3,43.4,30.09,SSE,147,0.0,0.0,50,0.00,,,0.00,Wunderground v.1.15,2013-06-07 18:30:00,
2013-06-07 11:35:00,62.5,42.0,30.09,SE,130,0.0,4.0,47,0.00,,,0.00,Wunderground v.1.15,2013-06-07 18:35:00,
2013-06-07 11:38:00,62.6,42.6,30.09,NNE,26,1.0,4.0,48,0.00,,,0.00,Wunderground v.1.15,2013-06-07 18:38:00,
2013-06-07 11:41:00,62.6,40.9,30.09,NNE,15,2.0,5.0,45,0.00,,,0.00,Wunderground v.1.15,2013-06-07 18:41:00,
2013-06-07 11:42:00,62.6,40.9,30.09,East,96,1.0,5.0,45,0.00,,,0.00,Wunderground v.1.15,2013-06-07 18:42:00,
2013-06-07 11:43:00,62.6,41.5,30.09,SSE,148,0.0,5.0,46,0.00,,,0.00,Wunderground v.1.15,2013-06-07 18:43:00,
2013-06-07 11:46:00,62.8,44.9,30.09,SE,143,1.0,5.0,52,0.00,,,0.00,Wunderground v.1.15,2013-06-07 18:46:00,
2013-06-07 11:47:00,62.8,43.3,30.09,SSE,153,1.0,5.0,49,0.00,,,0.00,Wunderground v.1.15,2013-06-07 18:47:00,
2013-06-07 11:48:00,62.8,42.8,30.09,SSE,148,0.0,5.0,48,0.00,,,0.00,Wunderground v.1.15,2013-06-07 18:48:00,
2013-06-07 11:50:00,62.9,44.0,30.09,SSE,163,2.0,3.0,50,0.00,,,0.00,Wunderground v.1.15,2013-06-07 18:50:00,
2013-06-07 11:54:00,62.9,43.4,30.09,ESE,107,2.0,6.0,49,0.00,,,0.00,Wunderground v.1.15,2013-06-07 18:54:00,
2013-06-07 11:56:00,63.1,43.6,30.09,SE,146,0.0,6.0,49,0.00,,,0.00,Wunderground v.1.15,2013-06-07 18:56:00,
2013-06-07 12:00:00,63.1,44.7,30.09,North,360,0.0,1.0,51,0.00,,,0.00,Wunderground v.1.15,2013-06-07 19:00:00,
2013-06-07 12:02:00,63.1,44.2,30.09,South,169,5.0,5.0,50,0.00,,,0.00,Wunderground v.1.15,2013-06-07 19:02:00,
2013-06-07 12:04:00,63.1,43.1,30.09,SE,132,0.0,5.0,48,0.00,,,0.00,Wunderground v.1.15,2013-06-07 19:04:00,
2013-06-07 12:06:00,63.1,45.7,30.09,SE,130,0.0,5.0,53,0.00,,,0.00,Wunderground v.1.15,2013-06-07 19:06:00,
2013-06-07 12:08:00,63.1,46.2,30.09,SE,130,0.0,5.0,54,0.00,,,0.00,Wunderground v.1.15,2013-06-07 19:08:00,
2013-06-07 12:10:00,63.1,45.7,30.09,ESE,115,1.0,1.0,53,0.00,,,0.00,Wunderground v.1.15,2013-06-07 19:10:00,
2013-06-07 12:11:00,63.1,45.2,30.09,South,169,1.0,1.0,52,0.00,,,0.00,Wunderground v.1.15,2013-06-07 19:11:00,
2013-06-07 12:15:00,63.1,44.7,30.09,SSW,209,0.0,1.0,51,0.00,,,0.00,Wunderground v.1.15,2013-06-07 19:15:00,
2013-06-07 12:17:00,62.9,42.9,30.09,NW,325,2.0,4.0,48,0.00,,,0.00,Wunderground v.1.15,2013-06-07 19:17:00,
2013-06-07 12:20:00,62.9,45.0,30.10,NNE,22,1.0,1.0,52,0.00,,,0.00,Wunderground v.1.15,2013-06-07 19:20:00,
2013-06-07 12:22:00,62.9,46.0,30.10,NNE,19,2.0,2.0,54,0.00,,,0.00,Wunderground v.1.15,2013-06-07 19:22:00,
2013-06-07 12:23:00,62.9,45.0,30.10,NNE,14,2.0,2.0,52,0.00,,,0.00,Wunderground v.1.15,2013-06-07 19:23:00,
2013-06-07 12:27:00,62.9,45.0,30.10,East,91,0.0,5.0,52,0.00,,,0.00,Wunderground v.1.15,2013-06-07 19:27:00,
2013-06-07 12:28:00,62.9,45.5,30.10,East,91,0.0,5.0,53,0.00,,,0.00,Wunderground v.1.15,2013-06-07 19:28:00,
2013-06-07 12:29:00,63.1,46.2,30.10,NNE,21,0.0,5.0,54,0.00,,,0.00,Wunderground v.1.15,2013-06-07 19:29:00,
2013-06-07 12:32:00,63.1,45.2,30.10,ESE,107,0.0,1.0,52,0.00,,,0.00,Wunderground v.1.15,2013-06-07 19:32:00,
2013-06-07 12:33:00,63.1,45.7,30.10,ESE,107,0.0,1.0,53,0.00,,,0.00,Wunderground v.1.15,2013-06-07 19:33:00,
2013-06-07 12:35:00,63.2,46.8,30.10,NNE,24,1.0,2.0,55,0.00,,,0.00,Wunderground v.1.15,2013-06-07 19:35:00,
2013-06-07 12:36:00,63.2,46.8,30.10,ESE,108,1.0,2.0,55,0.00,,,0.00,Wunderground v.1.15,2013-06-07 19:36:00,
2013-06-07 12:37:00,63.1,44.2,30.10,SSW,212,0.0,3.0,50,0.00,,,0.00,Wunderground v.1.15,2013-06-07 19:37:00,
2013-06-07 12:38:00,63.1,44.2,30.10,SSW,212,0.0,3.0,50,0.00,,,0.00,Wunderground v.1.15,2013-06-07 19:38:00,
2013-06-07 12:40:00,63.1,43.6,30.10,SSW,196,0.0,0.0,49,0.00,,,0.00,Wunderground v.1.15,2013-06-07 19:40:00,
2013-06-07 12:41:00,63.1,43.6,30.10,SSE,161,0.0,0.0,49,0.00,,,0.00,Wunderground v.1.15,2013-06-07 19:41:00,
2013-06-07 12:42:00,63.2,45.8,30.10,NE,39,0.0,2.0,53,0.00,,,0.00,Wunderground v.1.15,2013-06-07 19:42:00,
2013-06-07 12:43:00,63.2,45.8,30.10,NE,39,0.0,2.0,53,0.00,,,0.00,Wunderground v.1.15,2013-06-07 19:43:00,
2013-06-07 12:45:00,63.2,44.8,30.10,NNE,20,2.0,2.0,51,0.00,,,0.00,Wunderground v.1.15,2013-06-07 19:45:00,
2013-06-07 12:47:00,63.2,43.7,30.10,North,5,4.0,4.0,49,0.00,,,0.00,Wunderground v.1.15,2013-06-07 19:47:00,
2013-06-07 12:49:00,63.2,44.8,30.10,NNE,21,0.0,4.0,51,0.00,,,0.00,Wunderground v.1.15,2013-06-07 19:49:00,
2013-06-07 12:51:00,63.1,43.6,30.10,NNE,30,0.0,1.0,49,0.00,,,0.00,Wunderground v.1.15,2013-06-07 19:51:00,
2013-06-07 12:52:00,63.1,44.2,30.10,North,350,0.0,1.0,50,0.00,,,0.00,Wunderground v.1.15,2013-06-07 19:52:00,
2013-06-07 12:55:00,62.9,45.0,30.10,NE,35,0.0,1.0,52,0.00,,,0.00,Wunderground v.1.15,2013-06-07 19:55:00,
2013-06-07 12:57:00,62.9,44.5,30.10,NE,39,4.0,4.0,51,0.00,,,0.00,Wunderground v.1.15,2013-06-07 19:57:00,
2013-06-07 12:58:00,62.9,45.0,30.10,NE,40,2.0,4.0,52,0.00,,,0.00,Wunderground v.1.15,2013-06-07 19:58:00,
2013-06-07 12:59:00,62.9,44.5,30.10,WSW,245,1.0,4.0,51,0.00,,,0.00,Wunderground v.1.15,2013-06-07 19:59:00,
2013-06-07 13:01:00,62.9,44.5,30.10,SW,221,0.0,1.0,51,0.00,,,0.00,Wunderground v.1.15,2013-06-07 20:01:00,
2013-06-07 13:03:00,62.9,45.0,30.10,SW,221,0.0,1.0,52,0.00,,,0.00,Wunderground v.1.15,2013-06-07 20:03:00,
2013-06-07 13:05:00,62.9,47.0,30.10,NNW,342,0.0,1.0,56,0.00,,,0.00,Wunderground v.1.15,2013-06-07 20:05:00,
2013-06-07 13:07:00,63.1,46.2,30.10,WNW,302,1.0,1.0,54,0.00,,,0.00,Wunderground v.1.15,2013-06-07 20:07:00,
2013-06-07 13:09:00,63.1,46.2,30.10,ESE,105,0.0,2.0,54,0.00,,,0.00,Wunderground v.1.15,2013-06-07 20:09:00,
2013-06-07 13:12:00,63.1,46.7,30.10,West,273,1.0,6.0,55,0.00,,,0.00,Wunderground v.1.15,2013-06-07 20:12:00,
2013-06-07 13:13:00,63.1,47.1,30.10,West,267,0.0,6.0,56,0.00,,,0.00,Wunderground v.1.15,2013-06-07 20:13:00,
2013-06-07 13:17:00,63.2,47.2,30.11,ESE,119,0.0,6.0,56,0.00,,,0.00,Wunderground v.1.15,2013-06-07 20:17:00,
2013-06-07 13:19:00,63.2,47.2,30.11,SW,229,0.0,6.0,56,0.00,,,0.00,Wunderground v.1.15,2013-06-07 20:19:00,
2013-06-07 13:22:00,63.4,46.5,30.11,NNE,33,1.0,2.0,54,0.00,,,0.00,Wunderground v.1.15,2013-06-07 20:22:00,
2013-06-07 13:24:00,63.6,47.1,30.11,ENE,65,2.0,4.0,55,0.00,,,0.00,Wunderground v.1.15,2013-06-07 20:24:00,
2013-06-07 13:27:00,63.6,48.1,30.11,WSW,251,0.0,4.0,57,0.00,,,0.00,Wunderground v.1.15,2013-06-07 20:27:00,
2013-06-07 13:28:00,63.6,48.1,30.11,SE,124,1.0,4.0,57,0.00,,,0.00,Wunderground v.1.15,2013-06-07 20:28:00,
2013-06-07 13:30:00,63.6,47.1,30.11,South,184,0.0,1.0,55,0.00,,,0.00,Wunderground v.1.15,2013-06-07 20:30:00,
2013-06-07 13:32:00,63.6,47.6,30.11,SE,141,0.0,3.0,56,0.00,,,0.00,Wunderground v.1.15,2013-06-07 20:32:00,
2013-06-07 13:34:00,63.6,47.6,30.11,SE,140,2.0,3.0,56,0.00,,,0.00,Wunderground v.1.15,2013-06-07 20:34:00,
2013-06-07 13:35:00,63.6,47.1,30.11,South,170,0.0,3.0,55,0.00,,,0.00,Wunderground v.1.15,2013-06-07 20:35:00,
2013-06-07 13:38:00,63.6,48.1,30.11,NE,44,0.0,4.0,57,0.00,,,0.00,Wunderground v.1.15,2013-06-07 20:38:00,
2013-06-07 13:39:00,63.7,48.2,30.11,NE,49,5.0,5.0,57,0.00,,,0.00,Wunderground v.1.15,2013-06-07 20:39:00,
2013-06-07 13:40:00,63.6,48.1,30.11,NE,40,0.0,1.0,57,0.00,,,0.00,Wunderground v.1.15,2013-06-07 20:40:00,
2013-06-07 13:42:00,63.6,47.6,30.11,NNE,23,2.0,2.0,56,0.00,,,0.00,Wunderground v.1.15,2013-06-07 20:42:00,
2013-06-07 13:43:00,63.6,48.5,30.11,NW,320,2.0,2.0,58,0.00,,,0.00,Wunderground v.1.15,2013-06-07 20:43:00,
2013-06-07 13:45:00,63.4,47.4,30.11,NW,304,0.0,2.0,56,0.00,,,0.00,Wunderground v.1.15,2013-06-07 20:45:00,
2013-06-07 13:46:00,63.2,47.2,30.11,West,261,0.0,2.0,56,0.00,,,0.00,Wunderground v.1.15,2013-06-07 20:46:00,
2013-06-07 13:47:00,63.2,47.2,30.11,North,5,0.0,2.0,56,0.00,,,0.00,Wunderground v.1.15,2013-06-07 20:47:00,
2013-06-07 13:50:00,63.1,47.1,30.11,North,5,1.0,1.0,56,0.00,,,0.00,Wunderground v.1.15,2013-06-07 20:50:00,
2013-06-07 13:52:00,63.1,47.6,30.11,NNE,33,1.0,1.0,57,0.00,,,0.00,Wunderground v.1.15,2013-06-07 20:52:00,
2013-06-07 13:53:00,63.1,47.6,30.11,NE,41,0.0,1.0,57,0.00,,,0.00,Wunderground v.1.15,2013-06-07 20:53:00,
2013-06-07 13:56:00,63.1,48.1,30.11,North,9,1.0,2.0,58,0.00,,,0.00,Wunderground v.1.15,2013-06-07 20:56:00,
2013-06-07 13:59:00,62.9,47.0,30.11,NNE,17,1.0,5.0,56,0.00,,,0.00,Wunderground v.1.15,2013-06-07 20:59:00,
2013-06-07 14:01:00,62.9,47.0,30.11,NNE,17,0.0,1.0,56,0.00,,,0.00,Wunderground v.1.15,2013-06-07 21:01:00,
2013-06-07 14:03:00,62.9,47.9,30.10,NNW,334,0.0,3.0,58,0.00,,,0.00,Wunderground v.1.15,2013-06-07 21:03:00,
2013-06-07 14:06:00,62.9,48.3,30.10,NNE,15,0.0,3.0,59,0.00,,,0.00,Wunderground v.1.15,2013-06-07 21:06:00,
2013-06-07 14:07:00,62.9,48.3,30.10,NNE,15,0.0,3.0,59,0.00,,,0.00,Wunderground v.1.15,2013-06-07 21:07:00,
2013-06-07 14:09:00,62.9,47.0,30.10,North,5,0.0,3.0,56,0.00,,,0.00,Wunderground v.1.15,2013-06-07 21:09:00,
2013-06-07 14:12:00,62.9,47.0,30.10,North,5,0.0,1.0,56,0.00,,,0.00,Wunderground v.1.15,2013-06-07 21:12:00,
2013-06-07 14:14:00,62.9,47.9,30.10,ESE,103,0.0,2.0,58,0.00,,,0.00,Wunderground v.1.15,2013-06-07 21:14:00,
2013-06-07 14:17:00,62.9,47.0,30.11,NNW,346,0.0,2.0,56,0.00,,,0.00,Wunderground v.1.15,2013-06-07 21:17:00,
2013-06-07 14:18:00,62.9,47.0,30.11,NNW,346,0.0,2.0,56,0.00,,,0.00,Wunderground v.1.15,2013-06-07 21:18:00,
2013-06-07 14:19:00,62.9,47.9,30.11,NNW,346,0.0,2.0,58,0.00,,,0.00,Wunderground v.1.15,2013-06-07 21:19:00,
2013-06-07 14:24:00,63.1,48.1,30.11,East,84,2.0,6.0,58,0.00,,,0.00,Wunderground v.1.15,2013-06-07 21:24:00,
2013-06-07 14:25:00,63.1,47.1,30.11,NE,34,0.0,6.0,56,0.00,,,0.00,Wunderground v.1.15,2013-06-07 21:25:00,
2013-06-07 14:27:00,63.1,47.1,30.11,North,355,0.0,6.0,56,0.00,,,0.00,Wunderground v.1.15,2013-06-07 21:27:00,
2013-06-07 14:29:00,63.1,47.1,30.11,NE,53,3.0,6.0,56,0.00,,,0.00,Wunderground v.1.15,2013-06-07 21:29:00,
2013-06-07 14:32:00,63.1,47.6,30.11,ESE,122,1.0,1.0,57,0.00,,,0.00,Wunderground v.1.15,2013-06-07 21:32:00,
2013-06-07 14:33:00,63.1,48.1,30.11,ESE,103,0.0,1.0,58,0.00,,,0.00,Wunderground v.1.15,2013-06-07 21:33:00,
2013-06-07 14:35:00,63.2,48.2,30.11,ESE,103,0.0,1.0,58,0.00,,,0.00,Wunderground v.1.15,2013-06-07 21:35:00,
2013-06-07 14:37:00,63.2,48.6,30.11,NNE,30,0.0,2.0,59,0.00,,,0.00,Wunderground v.1.15,2013-06-07 21:37:00,
2013-06-07 14:38:00,63.2,47.7,30.11,NNE,30,2.0,2.0,57,0.00,,,0.00,Wunderground v.1.15,2013-06-07 21:38:00,
2013-06-07 14:39:00,63.2,47.2,30.11,NNE,28,0.0,2.0,56,0.00,,,0.00,Wunderground v.1.15,2013-06-07 21:39:00,
2013-06-07 14:42:00,63.4,47.9,30.11,NNE,20,2.0,2.0,57,0.00,,,0.00,Wunderground v.1.15,2013-06-07 21:42:00,
2013-06-07 14:43:00,63.4,47.9,30.11,NNE,20,0.0,2.0,57,0.00,,,0.00,Wunderground v.1.15,2013-06-07 21:43:00,
2013-06-07 14:44:00,63.6,48.1,30.11,NNE,28,0.0,2.0,57,0.00,,,0.00,Wunderground v.1.15,2013-06-07 21:44:00,
2013-06-07 14:48:00,63.6,48.5,30.11,North,355,0.0,2.0,58,0.00,,,0.00,Wunderground v.1.15,2013-06-07 21:48:00,
2013-06-07 14:49:00,63.6,48.1,30.11,North,355,0.0,2.0,57,0.00,,,0.00,Wunderground v.1.15,2013-06-07 21:49:00,
2013-06-07 14:53:00,63.7,48.2,30.11,North,355,0.0,0.0,57,0.00,,,0.00,Wunderground v.1.15,2013-06-07 21:53:00,
2013-06-07 14:54:00,63.7,48.2,30.11,North,355,0.0,0.0,57,0.00,,,0.00,Wunderground v.1.15,2013-06-07 21:54:00,
2013-06-07 14:55:00,63.7,48.2,30.11,North,355,0.0,0.0,57,0.00,,,0.00,Wunderground v.1.15,2013-06-07 21:55:00,
2013-06-07 14:58:00,63.7,47.7,30.11,NE,40,1.0,1.0,56,0.00,,,0.00,Wunderground v.1.15,2013-06-07 21:58:00,
2013-06-07 15:00:00,63.7,47.7,30.11,NE,40,0.0,0.0,56,0.00,,,0.00,Wunderground v.1.15,2013-06-07 22:00:00,
2013-06-07 15:04:00,63.9,47.9,30.11,NE,40,0.0,0.0,56,0.00,,,0.00,Wunderground v.1.15,2013-06-07 22:04:00,
2013-06-07 15:07:00,63.9,48.4,30.11,NE,40,0.0,0.0,57,0.00,,,0.00,Wunderground v.1.15,2013-06-07 22:07:00,
2013-06-07 15:08:00,63.9,48.8,30.11,NE,40,0.0,0.0,58,0.00,,,0.00,Wunderground v.1.15,2013-06-07 22:08:00,
2013-06-07 15:09:00,63.9,48.4,30.11,NE,40,0.0,0.0,57,0.00,,,0.00,Wunderground v.1.15,2013-06-07 22:09:00,
2013-06-07 15:12:00,64.0,49.4,30.11,NE,35,1.0,1.0,59,0.00,,,0.00,Wunderground v.1.15,2013-06-07 22:12:00,
2013-06-07 15:13:00,64.0,48.5,30.11,NNE,30,2.0,2.0,57,0.00,,,0.00,Wunderground v.1.15,2013-06-07 22:13:00,
2013-06-07 15:17:00,64.0,48.0,30.11,NNE,31,0.0,2.0,56,0.00,,,0.00,Wunderground v.1.15,2013-06-07 22:17:00,
2013-06-07 15:18:00,64.2,48.6,30.11,NNE,31,0.0,2.0,57,0.00,,,0.00,Wunderground v.1.15,2013-06-07 22:18:00,
2013-06-07 15:20:00,64.2,49.1,30.11,NNE,30,0.0,2.0,58,0.00,,,0.00,Wunderground v.1.15,2013-06-07 22:20:00,
2013-06-07 15:22:00,64.2,48.6,30.11,East,89,0.0,2.0,57,0.00,,,0.00,Wunderground v.1.15,2013-06-07 22:22:00,
2013-06-07 15:24:00,64.2,49.1,30.11,NNE,31,0.0,2.0,58,0.00,,,0.00,Wunderground v.1.15,2013-06-07 22:24:00,
2013-06-07 15:27:00,64.2,49.1,30.11,NNE,31,0.0,2.0,58,0.00,,,0.00,Wunderground v.1.15,2013-06-07 22:27:00,
2013-06-07 15:28:00,64.2,50.0,30.11,NNE,31,0.0,2.0,60,0.00,,,0.00,Wunderground v.1.15,2013-06-07 22:28:00,
2013-06-07 15:30:00,64.2,49.6,30.11,NNE,31,0.0,2.0,59,0.00,,,0.00,Wunderground v.1.15,2013-06-07 22:30:00,
2013-06-07 15:33:00,64.2,48.2,30.12,NNE,31,0.0,1.0,56,0.00,,,0.00,Wunderground v.1.15,2013-06-07 22:33:00,
2013-06-07 15:35:00,64.2,48.6,30.12,NE,46,0.0,2.0,57,0.00,,,0.00,Wunderground v.1.15,2013-06-07 22:35:00,
2013-06-07 15:37:00,64.2,48.2,30.12,NE,46,0.0,2.0,56,0.00,,,0.00,Wunderground v.1.15,2013-06-07 22:37:00,
2013-06-07 15:38:00,64.2,49.1,30.12,NE,46,0.0,2.0,58,0.00,,,0.00,Wunderground v.1.15,2013-06-07 22:38:00,
2013-06-07 15:39:00,64.2,49.1,30.12,NE,46,0.0,2.0,58,0.00,,,0.00,Wunderground v.1.15,2013-06-07 22:39:00,
2013-06-07 15:40:00,64.2,50.0,30.12,NE,46,0.0,0.0,60,0.00,,,0.00,Wunderground v.1.15,2013-06-07 22:40:00,
2013-06-07 15:42:00,64.2,50.5,30.12,NE,46,0.0,0.0,61,0.00,,,0.00,Wunderground v.1.15,2013-06-07 22:42:00,
2013-06-07 15:45:00,64.4,49.8,30.12,NE,46,0.0,0.0,59,0.00,,,0.00,Wunderground v.1.15,2013-06-07 22:45:00,
2013-06-07 15:47:00,64.4,49.8,30.12,NE,46,0.0,0.0,59,0.00,,,0.00,Wunderground v.1.15,2013-06-07 22:47:00,
2013-06-07 15:48:00,64.4,50.7,30.12,NE,46,0.0,0.0,61,0.00,,,0.00,Wunderground v.1.15,2013-06-07 22:48:00,
2013-06-07 15:50:00,64.5,49.8,30.12,NE,46,0.0,0.0,59,0.00,,,0.00,Wunderground v.1.15,2013-06-07 22:50:00,
2013-06-07 15:53:00,64.7,48.6,30.12,NE,46,0.0,1.0,56,0.00,,,0.00,Wunderground v.1.15,2013-06-07 22:53:00,
2013-06-07 15:54:00,64.7,48.6,30.12,NE,46,0.0,1.0,56,0.00,,,0.00,Wunderground v.1.15,2013-06-07 22:54:00,
2013-06-07 15:55:00,64.7,48.6,30.12,NE,46,1.0,1.0,56,0.00,,,0.00,Wunderground v.1.15,2013-06-07 22:55:00,
2013-06-07 15:57:00,64.7,48.2,30.12,NE,40,2.0,2.0,55,0.00,,,0.00,Wunderground v.1.15,2013-06-07 22:57:00,
2013-06-07 15:59:00,64.8,48.2,30.12,NE,34,4.0,4.0,55,0.00,,,0.00,Wunderground v.1.15,2013-06-07 22:59:00,
2013-06-07 16:00:00,64.8,49.2,30.12,NNE,30,0.0,1.0,57,0.00,,,0.00,Wunderground v.1.15,2013-06-07 23:00:00,
2013-06-07 16:04:00,64.8,49.2,30.12,NNE,30,0.0,2.0,57,0.00,,,0.00,Wunderground v.1.15,2013-06-07 23:04:00,
2013-06-07 16:05:00,64.8,48.2,30.12,NNE,30,0.0,2.0,55,0.00,,,0.00,Wunderground v.1.15,2013-06-07 23:05:00,
2013-06-07 16:06:00,64.8,48.2,30.12,NNE,30,0.0,2.0,55,0.00,,,0.00,Wunderground v.1.15,2013-06-07 23:06:00,
2013-06-07 16:10:00,64.8,48.7,30.12,NNE,30,0.0,0.0,56,0.00,,,0.00,Wunderground v.1.15,2013-06-07 23:10:00,
2013-06-07 16:11:00,64.8,49.7,30.12,NNE,30,0.0,0.0,58,0.00,,,0.00,Wunderground v.1.15,2013-06-07 23:11:00,
2013-06-07 16:12:00,64.7,49.6,30.12,NNE,30,0.0,0.0,58,0.00,,,0.00,Wunderground v.1.15,2013-06-07 23:12:00,
2013-06-07 16:15:00,64.7,50.5,30.12,NNE,30,0.0,1.0,60,0.00,,,0.00,Wunderground v.1.15,2013-06-07 23:15:00,
2013-06-07 16:18:00,64.5,48.4,30.12,NNE,30,0.0,1.0,56,0.00,,,0.00,Wunderground v.1.15,2013-06-07 23:18:00,
2013-06-07 16:19:00,64.5,48.4,30.12,NNE,30,0.0,1.0,56,0.00,,,0.00,Wunderground v.1.15,2013-06-07 23:19:00,
2013-06-07 16:21:00,64.5,48.4,30.12,NNE,30,0.0,0.0,56,0.00,,,0.00,Wunderground v.1.15,2013-06-07 23:21:00,
2013-06-07 16:23:00,64.5,48.9,30.12,NNE,30,0.0,0.0,57,0.00,,,0.00,Wunderground v.1.15,2013-06-07 23:23:00,
2013-06-07 16:26:00,64.5,49.8,30.12,NNE,30,0.0,0.0,59,0.00,,,0.00,Wunderground v.1.15,2013-06-07 23:26:00,
2013-06-07 16:27:00,64.5,49.8,30.12,NNE,30,0.0,0.0,59,0.00,,,0.00,Wunderground v.1.15,2013-06-07 23:27:00,
2013-06-07 16:28:00,64.5,49.4,30.12,NNE,30,0.0,0.0,58,0.00,,,0.00,Wunderground v.1.15,2013-06-07 23:28:00,
2013-06-07 16:32:00,64.4,48.8,30.12,NNE,30,0.0,0.0,57,0.00,,,0.00,Wunderground v.1.15,2013-06-07 23:32:00,
2013-06-07 16:34:00,64.4,48.4,30.12,NNE,30,0.0,0.0,56,0.00,,,0.00,Wunderground v.1.15,2013-06-07 23:34:00,
2013-06-07 16:37:00,64.4,50.2,30.12,NNE,30,0.0,0.0,60,0.00,,,0.00,Wunderground v.1.15,2013-06-07 23:37:00,
2013-06-07 16:38:00,64.4,50.2,30.12,NNE,30,0.0,0.0,60,0.00,,,0.00,Wunderground v.1.15,2013-06-07 23:38:00,
2013-06-07 16:40:00,64.4,49.8,30.12,NNE,30,0.0,0.0,59,0.00,,,0.00,Wunderground v.1.15,2013-06-07 23:40:00,
2013-06-07 16:42:00,64.4,49.8,30.12,NNE,30,0.0,0.0,59,0.00,,,0.00,Wunderground v.1.15,2013-06-07 23:42:00,
2013-06-07 16:45:00,64.4,48.4,30.12,NNE,30,0.0,0.0,56,0.00,,,0.00,Wunderground v.1.15,2013-06-07 23:45:00,
2013-06-07 16:48:00,64.2,48.2,30.12,NNE,30,0.0,0.0,56,0.00,,,0.00,Wunderground v.1.15,2013-06-07 23:48:00,
2013-06-07 16:51:00,64.4,49.8,30.12,NNE,30,0.0,0.0,59,0.00,,,0.00,Wunderground v.1.15,2013-06-07 23:51:00,
2013-06-07 16:57:00,64.2,49.6,30.12,NNE,30,0.0,0.0,59,0.00,,,0.00,Wunderground v.1.15,2013-06-07 23:57:00,
2013-06-07 16:58:00,64.2,50.0,30.12,NNE,30,0.0,0.0,60,0.00,,,0.00,Wunderground v.1.15,2013-06-07 23:58:00,
2013-06-07 17:02:00,64.2,49.1,30.12,NNE,30,0.0,0.0,58,0.00,,,0.00,Wunderground v.1.15,2013-06-08 00:02:00,
2013-06-07 17:04:00,64.0,48.5,30.12,NNE,30,0.0,0.0,57,0.00,,,0.00,Wunderground v.1.15,2013-06-08 00:04:00,
2013-06-07 17:07:00,64.2,49.6,30.12,NNE,30,0.0,0.0,59,0.00,,,0.00,Wunderground v.1.15,2013-06-08 00:07:00,
2013-06-07 17:10:00,64.2,48.6,30.12,NNE,26,0.0,0.0,57,0.00,,,0.00,Wunderground v.1.15,2013-06-08 00:10:00,
2013-06-07 17:11:00,64.0,48.0,30.12,NNE,26,0.0,0.0,56,0.00,,,0.00,Wunderground v.1.15,2013-06-08 00:11:00,
2013-06-07 17:12:00,64.0,48.5,30.12,NNE,26,0.0,0.0,57,0.00,,,0.00,Wunderground v.1.15,2013-06-08 00:12:00,
2013-06-07 17:13:00,64.0,48.5,30.12,NNE,26,0.0,0.0,57,0.00,,,0.00,Wunderground v.1.15,2013-06-08 00:13:00,
2013-06-07 17:15:00,64.0,48.5,30.12,NNE,26,0.0,0.0,57,0.00,,,0.00,Wunderground v.1.15,2013-06-08 00:15:00,
2013-06-07 17:16:00,64.0,48.5,30.12,NNE,26,0.0,0.0,57,0.00,,,0.00,Wunderground v.1.15,2013-06-08 00:16:00,
2013-06-07 17:18:00,64.0,49.4,30.12,NNE,26,0.0,0.0,59,0.00,,,0.00,Wunderground v.1.15,2013-06-08 00:18:00,
2013-06-07 17:20:00,64.0,48.9,30.12,NNE,26,0.0,0.0,58,0.00,,,0.00,Wunderground v.1.15,2013-06-08 00:20:00,
2013-06-07 17:22:00,64.0,48.9,30.12,NNE,26,0.0,0.0,58,0.00,,,0.00,Wunderground v.1.15,2013-06-08 00:22:00,
2013-06-07 17:23:00,64.0,49.4,30.12,NNE,26,0.0,0.0,59,0.00,,,0.00,Wunderground v.1.15,2013-06-08 00:23:00,
2013-06-07 17:24:00,64.2,50.5,30.12,NNE,26,0.0,0.0,61,0.00,,,0.00,Wunderground v.1.15,2013-06-08 00:24:00,
2013-06-07 17:28:00,64.2,48.2,30.12,West,261,1.0,1.0,56,0.00,,,0.00,Wunderground v.1.15,2013-06-08 00:28:00,
2013-06-07 17:29:00,64.2,48.2,30.12,West,261,0.0,1.0,56,0.00,,,0.00,Wunderground v.1.15,2013-06-08 00:29:00,
2013-06-07 17:34:00,64.4,48.4,30.13,West,261,0.0,0.0,56,0.00,,,0.00,Wunderground v.1.15,2013-06-08 00:34:00,
2013-06-07 17:35:00,64.4,49.3,30.13,West,261,0.0,0.0,58,0.00,,,0.00,Wunderground v.1.15,2013-06-08 00:35:00,
2013-06-07 17:39:00,64.5,50.3,30.13,West,261,0.0,0.0,60,0.00,,,0.00,Wunderground v.1.15,2013-06-08 00:39:00,
2013-06-07 17:40:00,64.5,50.3,30.13,West,261,0.0,0.0,60,0.00,,,0.00,Wunderground v.1.15,2013-06-08 00:40:00,
2013-06-07 17:42:00,64.7,50.0,30.13,West,261,0.0,0.0,59,0.00,,,0.00,Wunderground v.1.15,2013-06-08 00:42:00,
2013-06-07 17:43:00,64.7,50.0,30.13,West,261,0.0,0.0,59,0.00,,,0.00,Wunderground v.1.15,2013-06-08 00:43:00,
2013-06-07 17:46:00,64.7,50.0,30.13,West,261,0.0,0.0,59,0.00,,,0.00,Wunderground v.1.15,2013-06-08 00:46:00,
2013-06-07 17:48:00,64.8,49.7,30.12,West,261,0.0,0.0,58,0.00,,,0.00,Wunderground v.1.15,2013-06-08 00:48:00,
2013-06-07 17:52:00,65.0,48.9,30.12,West,261,0.0,1.0,56,0.00,,,0.00,Wunderground v.1.15,2013-06-08 00:52:00,
2013-06-07 17:53:00,65.0,48.4,30.12,West,261,1.0,1.0,55,0.00,,,0.00,Wunderground v.1.15,2013-06-08 00:53:00,
2013-06-07 17:55:00,65.0,47.9,30.12,West,261,0.0,1.0,54,0.00,,,0.00,Wunderground v.1.15,2013-06-08 00:55:00,
2013-06-07 17:57:00,65.0,48.9,30.12,West,261,0.0,1.0,56,0.00,,,0.00,Wunderground v.1.15,2013-06-08 00:57:00,
2013-06-07 17:58:00,65.0,48.9,30.12,West,261,0.0,1.0,56,0.00,,,0.00,Wunderground v.1.15,2013-06-08 00:58:00,
2013-06-07 17:59:00,65.0,48.9,30.12,West,261,0.0,1.0,56,0.00,,,0.00,Wunderground v.1.15,2013-06-08 00:59:00,
2013-06-07 18:02:00,64.8,49.2,30.12,West,261,0.0,0.0,57,0.00,,,0.00,Wunderground v.1.15,2013-06-08 01:02:00,
2013-06-07 18:03:00,64.8,50.1,30.12,West,261,0.0,0.0,59,0.00,,,0.00,Wunderground v.1.15,2013-06-08 01:03:00,
2013-06-07 18:04:00,64.8,50.1,30.12,West,261,0.0,0.0,59,0.00,,,0.00,Wunderground v.1.15,2013-06-08 01:04:00,
2013-06-07 18:05:00,64.8,50.1,30.12,West,261,0.0,0.0,59,0.00,,,0.00,Wunderground v.1.15,2013-06-08 01:05:00,
2013-06-07 18:07:00,64.8,51.9,30.12,West,261,0.0,0.0,63,0.00,,,0.00,Wunderground v.1.15,2013-06-08 01:07:00,
2013-06-07 18:09:00,64.8,51.0,30.12,West,261,0.0,0.0,61,0.00,,,0.00,Wunderground v.1.15,2013-06-08 01:09:00,
2013-06-07 18:10:00,64.8,51.9,30.12,West,263,0.0,1.0,63,0.00,,,0.00,Wunderground v.1.15,2013-06-08 01:10:00,
2013-06-07 18:13:00,64.8,51.5,30.12,West,263,0.0,1.0,62,0.00,,,0.00,Wunderground v.1.15,2013-06-08 01:13:00,
2013-06-07 18:14:00,64.8,50.1,30.12,West,263,0.0,1.0,59,0.00,,,0.00,Wunderground v.1.15,2013-06-08 01:14:00,
2013-06-07 18:15:00,64.8,50.1,30.12,West,263,0.0,1.0,59,0.00,,,0.00,Wunderground v.1.15,2013-06-08 01:15:00,
2013-06-07 18:19:00,64.8,51.5,30.11,West,263,0.0,1.0,62,0.00,,,0.00,Wunderground v.1.15,2013-06-08 01:19:00,
2013-06-07 18:20:00,64.7,48.2,30.11,West,264,0.0,0.0,55,0.00,,,0.00,Wunderground v.1.15,2013-06-08 01:20:00,
2013-06-07 18:21:00,64.7,48.2,30.11,West,264,0.0,0.0,55,0.00,,,0.00,Wunderground v.1.15,2013-06-08 01:21:00,
2013-06-07 18:25:00,64.7,48.2,30.11,West,264,0.0,0.0,55,0.00,,,0.00,Wunderground v.1.15,2013-06-08 01:25:00,
2013-06-07 18:26:00,64.7,48.6,30.11,West,264,0.0,0.0,56,0.00,,,0.00,Wunderground v.1.15,2013-06-08 01:26:00,
2013-06-07 18:27:00,64.7,49.1,30.11,West,264,0.0,0.0,57,0.00,,,0.00,Wunderground v.1.15,2013-06-08 01:27:00,
2013-06-07 18:30:00,64.7,49.6,30.11,West,264,0.0,0.0,58,0.00,,,0.00,Wunderground v.1.15,2013-06-08 01:30:00,
2013-06-07 18:32:00,64.7,49.1,30.11,West,264,0.0,0.0,57,0.00,,,0.00,Wunderground v.1.15,2013-06-08 01:32:00,
2013-06-07 18:33:00,64.7,49.1,30.11,West,264,0.0,0.0,57,0.00,,,0.00,Wunderground v.1.15,2013-06-08 01:33:00,
2013-06-07 18:34:00,64.7,49.6,30.11,West,264,0.0,0.0,58,0.00,,,0.00,Wunderground v.1.15,2013-06-08 01:34:00,
2013-06-07 18:36:00,64.7,49.1,30.11,West,264,0.0,0.0,57,0.00,,,0.00,Wunderground v.1.15,2013-06-08 01:36:00,
2013-06-07 18:38:00,64.7,49.6,30.11,West,264,0.0,0.0,58,0.00,,,0.00,Wunderground v.1.15,2013-06-08 01:38:00,
2013-06-07 18:39:00,64.7,50.5,30.11,West,264,0.0,0.0,60,0.00,,,0.00,Wunderground v.1.15,2013-06-08 01:39:00,
2013-06-07 18:42:00,64.7,49.6,30.11,SW,234,1.0,1.0,58,0.00,,,0.00,Wunderground v.1.15,2013-06-08 01:42:00,
2013-06-07 18:44:00,64.5,49.8,30.11,SW,234,0.0,1.0,59,0.00,,,0.00,Wunderground v.1.15,2013-06-08 01:44:00,
2013-06-07 18:46:00,64.5,49.4,30.11,SW,234,0.0,1.0,58,0.00,,,0.00,Wunderground v.1.15,2013-06-08 01:46:00,
2013-06-07 18:47:00,64.5,49.8,30.12,WSW,242,0.0,1.0,59,0.00,,,0.00,Wunderground v.1.15,2013-06-08 01:47:00,
2013-06-07 18:50:00,64.5,49.8,30.12,WSW,242,1.0,1.0,59,0.00,,,0.00,Wunderground v.1.15,2013-06-08 01:50:00,
2013-06-07 18:51:00,64.5,49.8,30.12,WSW,253,4.0,4.0,59,0.00,,,0.00,Wunderground v.1.15,2013-06-08 01:51:00,
2013-06-07 18:53:00,64.4,49.8,30.12,West,259,0.0,4.0,59,0.00,,,0.00,Wunderground v.1.15,2013-06-08 01:53:00,
2013-06-07 18:55:00,64.4,49.8,30.12,WSW,251,1.0,4.0,59,0.00,,,0.00,Wunderground v.1.15,2013-06-08 01:55:00,
2013-06-07 18:57:00,64.4,49.8,30.12,WSW,251,0.0,4.0,59,0.00,,,0.00,Wunderground v.1.15,2013-06-08 01:57:00,
2013-06-07 18:59:00,64.2,49.6,30.12,WSW,251,0.0,4.0,59,0.00,,,0.00,Wunderground v.1.15,2013-06-08 01:59:00,
2013-06-07 19:03:00,64.2,49.6,30.12,WSW,252,0.0,2.0,59,0.00,,,0.00,Wunderground v.1.15,2013-06-08 02:03:00,
2013-06-07 19:04:00,64.2,49.6,30.12,WSW,252,0.0,2.0,59,0.00,,,0.00,Wunderground v.1.15,2013-06-08 02:04:00,
2013-06-07 19:05:00,64.2,49.6,30.12,WSW,252,0.0,2.0,59,0.00,,,0.00,Wunderground v.1.15,2013-06-08 02:05:00,
2013-06-07 19:09:00,64.2,50.5,30.12,WSW,252,0.0,2.0,61,0.00,,,0.00,Wunderground v.1.15,2013-06-08 02:09:00,
2013-06-07 19:11:00,64.2,50.5,30.12,WSW,252,0.0,0.0,61,0.00,,,0.00,Wunderground v.1.15,2013-06-08 02:11:00,
2013-06-07 19:14:00,64.2,50.9,30.12,WSW,252,0.0,0.0,62,0.00,,,0.00,Wunderground v.1.15,2013-06-08 02:14:00,
2013-06-07 19:15:00,64.2,50.9,30.12,WSW,252,0.0,0.0,62,0.00,,,0.00,Wunderground v.1.15,2013-06-08 02:15:00,
2013-06-07 19:17:00,64.2,52.2,30.12,WSW,252,0.0,0.0,65,0.00,,,0.00,Wunderground v.1.15,2013-06-08 02:17:00,
2013-06-07 19:18:00,64.2,52.2,30.12,WSW,252,0.0,0.0,65,0.00,,,0.00,Wunderground v.1.15,2013-06-08 02:18:00,
2013-06-07 19:20:00,64.2,50.5,30.12,WSW,252,0.0,0.0,61,0.00,,,0.00,Wunderground v.1.15,2013-06-08 02:20:00,
2013-06-07 19:22:00,64.0,50.3,30.12,WSW,252,0.0,0.0,61,0.00,,,0.00,Wunderground v.1.15,2013-06-08 02:22:00,
2013-06-07 19:24:00,64.0,50.3,30.12,WSW,252,0.0,0.0,61,0.00,,,0.00,Wunderground v.1.15,2013-06-08 02:24:00,
2013-06-07 19:27:00,64.0,50.7,30.12,WSW,252,0.0,0.0,62,0.00,,,0.00,Wunderground v.1.15,2013-06-08 02:27:00,
2013-06-07 19:28:00,63.9,50.6,30.12,WSW,252,0.0,0.0,62,0.00,,,0.00,Wunderground v.1.15,2013-06-08 02:28:00,
2013-06-07 19:32:00,63.9,50.6,30.12,WSW,252,0.0,0.0,62,0.00,,,0.00,Wunderground v.1.15,2013-06-08 02:32:00,
2013-06-07 19:33:00,63.7,50.4,30.12,WSW,252,0.0,0.0,62,0.00,,,0.00,Wunderground v.1.15,2013-06-08 02:33:00,
2013-06-07 19:35:00,63.7,50.9,30.12,WSW,252,0.0,0.0,63,0.00,,,0.00,Wunderground v.1.15,2013-06-08 02:35:00,
2013-06-07 19:38:00,63.6,50.8,30.12,WSW,242,1.0,2.0,63,0.00,,,0.00,Wunderground v.1.15,2013-06-08 02:38:00,
2013-06-07 19:39:00,63.6,50.8,30.12,WSW,242,0.0,2.0,63,0.00,,,0.00,Wunderground v.1.15,2013-06-08 02:39:00,
2013-06-07 19:41:00,63.6,51.2,30.12,WSW,242,0.0,0.0,64,0.00,,,0.00,Wunderground v.1.15,2013-06-08 02:41:00,
2013-06-07 19:43:00,63.6,51.2,30.12,WSW,242,0.0,0.0,64,0.00,,,0.00,Wunderground v.1.15,2013-06-08 02:43:00,
2013-06-07 19:44:00,63.6,50.3,30.12,WSW,242,0.0,0.0,62,0.00,,,0.00,Wunderground v.1.15,2013-06-08 02:44:00,
2013-06-07 19:47:00,63.4,50.6,30.11,WSW,242,0.0,0.0,63,0.00,,,0.00,Wunderground v.1.15,2013-06-08 02:47:00,
2013-06-07 19:49:00,63.4,50.6,30.11,WSW,242,0.0,0.0,63,0.00,,,0.00,Wunderground v.1.15,2013-06-08 02:49:00,
2013-06-07 19:50:00,63.4,50.1,30.11,WSW,242,0.0,0.0,62,0.00,,,0.00,Wunderground v.1.15,2013-06-08 02:50:00,
2013-06-07 19:52:00,63.4,52.7,30.11,WSW,242,0.0,0.0,68,0.00,,,0.00,Wunderground v.1.15,2013-06-08 02:52:00,
2013-06-07 19:56:00,63.2,52.1,30.11,WSW,242,0.0,0.0,67,0.00,,,0.00,Wunderground v.1.15,2013-06-08 02:56:00,
2013-06-07 19:57:00,63.2,52.1,30.11,WSW,242,0.0,0.0,67,0.00,,,0.00,Wunderground v.1.15,2013-06-08 02:57:00,
2013-06-07 19:58:00,63.2,51.2,30.11,WSW,242,0.0,0.0,65,0.00,,,0.00,Wunderground v.1.15,2013-06-08 02:58:00,
2013-06-07 20:01:00,63.1,51.6,30.11,WSW,242,0.0,0.0,66,0.00,,,0.00,Wunderground v.1.15,2013-06-08 03:01:00,
2013-06-07 20:03:00,62.9,51.0,30.11,WSW,242,0.0,0.0,65,0.00,,,0.00,Wunderground v.1.15,2013-06-08 03:03:00,
2013-06-07 20:05:00,62.8,50.9,30.11,SW,221,0.0,0.0,65,0.00,,,0.00,Wunderground v.1.15,2013-06-08 03:05:00,
2013-06-07 20:09:00,62.5,50.6,30.11,SW,224,2.0,2.0,65,0.00,,,0.00,Wunderground v.1.15,2013-06-08 03:09:00,
2013-06-07 20:10:00,62.5,50.6,30.11,SW,224,1.0,2.0,65,0.00,,,0.00,Wunderground v.1.15,2013-06-08 03:10:00,
2013-06-07 20:12:00,62.3,51.2,30.11,SW,224,0.0,2.0,67,0.00,,,0.00,Wunderground v.1.15,2013-06-08 03:12:00,
2013-06-07 20:14:00,62.3,51.6,30.11,SW,224,1.0,2.0,68,0.00,,,0.00,Wunderground v.1.15,2013-06-08 03:14:00,
2013-06-07 20:15:00,62.3,51.6,30.11,SW,224,0.0,2.0,68,0.00,,,0.00,Wunderground v.1.15,2013-06-08 03:15:00,
2013-06-07 20:17:00,62.1,51.8,30.11,SW,224,0.0,2.0,69,0.00,,,0.00,Wunderground v.1.15,2013-06-08 03:17:00,
2013-06-07 20:18:00,62.0,51.7,30.10,SW,224,0.0,2.0,69,0.00,,,0.00,Wunderground v.1.15,2013-06-08 03:18:00,
2013-06-07 20:20:00,61.8,51.5,30.10,SW,224,0.0,1.0,69,0.00,,,0.00,Wunderground v.1.15,2013-06-08 03:20:00,
2013-06-07 20:23:00,61.5,51.2,30.10,SW,224,0.0,1.0,69,0.00,,,0.00,Wunderground v.1.15,2013-06-08 03:23:00,
2013-06-07 20:24:00,61.5,51.2,30.10,SW,224,0.0,1.0,69,0.00,,,0.00,Wunderground v.1.15,2013-06-08 03:24:00,
2013-06-07 20:25:00,61.4,51.5,30.10,SW,224,0.0,1.0,70,0.00,,,0.00,Wunderground v.1.15,2013-06-08 03:25:00,
2013-06-07 20:28:00,61.2,51.3,30.10,SW,230,0.0,1.0,70,0.00,,,0.00,Wunderground v.1.15,2013-06-08 03:28:00,
2013-06-07 20:29:00,61.0,51.1,30.10,SW,230,0.0,1.0,70,0.00,,,0.00,Wunderground v.1.15,2013-06-08 03:29:00,
2013-06-07 20:30:00,61.0,51.1,30.10,SW,230,0.0,0.0,70,0.00,,,0.00,Wunderground v.1.15,2013-06-08 03:30:00,
2013-06-07 20:31:00,61.0,51.1,30.10,SW,230,1.0,1.0,70,0.00,,,0.00,Wunderground v.1.15,2013-06-08 03:31:00,
2013-06-07 20:34:00,60.7,50.9,30.11,SW,230,0.0,1.0,70,0.00,,,0.00,Wunderground v.1.15,2013-06-08 03:34:00,
2013-06-07 20:35:00,60.6,51.1,30.11,SW,230,0.0,1.0,71,0.00,,,0.00,Wunderground v.1.15,2013-06-08 03:35:00,
2013-06-07 20:36:00,60.6,51.1,30.11,SW,230,1.0,1.0,71,0.00,,,0.00,Wunderground v.1.15,2013-06-08 03:36:00,
2013-06-07 20:39:00,60.4,51.0,30.11,SW,230,0.0,1.0,71,0.00,,,0.00,Wunderground v.1.15,2013-06-08 03:39:00,
2013-06-07 20:41:00,60.3,50.5,30.11,SW,230,0.0,0.0,70,0.00,,,0.00,Wunderground v.1.15,2013-06-08 03:41:00,
2013-06-07 20:42:00,60.1,50.7,30.11,SW,230,0.0,0.0,71,0.00,,,0.00,Wunderground v.1.15,2013-06-08 03:42:00,
2013-06-07 20:43:00,60.1,50.7,30.11,SW,230,0.0,0.0,71,0.00,,,0.00,Wunderground v.1.15,2013-06-08 03:43:00,
2013-06-07 20:44:00,60.1,51.0,30.11,SW,230,0.0,0.0,72,0.00,,,0.00,Wunderground v.1.15,2013-06-08 03:44:00,
2013-06-07 20:48:00,59.8,50.4,30.11,SW,230,0.0,2.0,71,0.00,,,0.00,Wunderground v.1.15,2013-06-08 03:48:00,
2013-06-07 20:50:00,59.7,50.3,30.11,SW,230,0.0,0.0,71,0.00,,,0.00,Wunderground v.1.15,2013-06-08 03:50:00,
2013-06-07 20:52:00,59.5,50.5,30.11,SW,230,0.0,1.0,72,0.00,,,0.00,Wunderground v.1.15,2013-06-08 03:52:00,
2013-06-07 20:53:00,59.5,50.5,30.11,SW,230,0.0,1.0,72,0.00,,,0.00,Wunderground v.1.15,2013-06-08 03:53:00,
2013-06-07 20:55:00,59.4,50.4,30.11,SW,230,0.0,1.0,72,0.00,,,0.00,Wunderground v.1.15,2013-06-08 03:55:00,
2013-06-07 20:57:00,59.2,50.2,30.11,WSW,245,2.0,2.0,72,0.00,,,0.00,Wunderground v.1.15,2013-06-08 03:57:00,
2013-06-07 20:59:00,59.1,50.5,30.11,WSW,256,0.0,3.0,73,0.00,,,0.00,Wunderground v.1.15,2013-06-08 03:59:00,
2013-06-07 21:00:00,58.9,50.3,30.11,WSW,250,2.0,3.0,73,0.00,,,0.00,Wunderground v.1.15,2013-06-08 04:00:00,
2013-06-07 21:01:00,58.9,50.3,30.11,WSW,250,1.0,3.0,73,0.00,,,0.00,Wunderground v.1.15,2013-06-08 04:01:00,
2013-06-07 21:02:00,58.9,50.3,30.12,WSW,250,0.0,3.0,73,0.00,,,0.00,Wunderground v.1.15,2013-06-08 04:02:00,
2013-06-07 21:03:00,58.9,50.3,30.12,WSW,250,0.0,3.0,73,0.00,,,0.00,Wunderground v.1.15,2013-06-08 04:03:00,
2013-06-07 21:06:00,58.8,50.5,30.12,WSW,250,0.0,3.0,74,0.00,,,0.00,Wunderground v.1.15,2013-06-08 04:06:00,
2013-06-07 21:07:00,58.6,50.3,30.12,WSW,250,0.0,3.0,74,0.00,,,0.00,Wunderground v.1.15,2013-06-08 04:07:00,
2013-06-07 21:08:00,58.6,50.3,30.12,WSW,250,1.0,3.0,74,0.00,,,0.00,Wunderground v.1.15,2013-06-08 04:08:00,
2013-06-07 21:11:00,58.5,50.6,30.12,WSW,245,1.0,5.0,75,0.00,,,0.00,Wunderground v.1.15,2013-06-08 04:11:00,
2013-06-07 21:12:00,58.5,50.6,30.12,WSW,254,1.0,5.0,75,0.00,,,0.00,Wunderground v.1.15,2013-06-08 04:12:00,
2013-06-07 21:13:00,58.5,50.6,30.12,WSW,254,1.0,5.0,75,0.00,,,0.00,Wunderground v.1.15,2013-06-08 04:13:00,
2013-06-07 21:18:00,58.3,50.4,30.12,WSW,254,0.0,5.0,75,0.00,,,0.00,Wunderground v.1.15,2013-06-08 04:18:00,
2013-06-07 21:19:00,58.3,50.4,30.12,WSW,244,0.0,5.0,75,0.00,,,0.00,Wunderground v.1.15,2013-06-08 04:19:00,
2013-06-07 21:23:00,58.0,50.5,30.12,SW,234,0.0,4.0,76,0.00,,,0.00,Wunderground v.1.15,2013-06-08 04:23:00,
2013-06-07 21:24:00,58.0,50.1,30.12,SW,234,0.0,4.0,75,0.00,,,0.00,Wunderground v.1.15,2013-06-08 04:24:00,
2013-06-07 21:26:00,58.0,50.5,30.12,West,259,0.0,7.0,76,0.00,,,0.00,Wunderground v.1.15,2013-06-08 04:26:00,
2013-06-07 21:28:00,57.8,50.3,30.12,West,259,0.0,7.0,76,0.00,,,0.00,Wunderground v.1.15,2013-06-08 04:28:00,
2013-06-07 21:30:00,57.8,50.3,30.12,WNW,301,2.0,2.0,76,0.00,,,0.00,Wunderground v.1.15,2013-06-08 04:30:00,
2013-06-07 21:32:00,57.7,50.2,30.13,West,272,5.0,5.0,76,0.00,,,0.00,Wunderground v.1.15,2013-06-08 04:32:00,
2013-06-07 21:35:00,57.5,50.0,30.13,West,259,0.0,5.0,76,0.00,,,0.00,Wunderground v.1.15,2013-06-08 04:35:00,
2013-06-07 21:36:00,57.5,50.0,30.13,West,259,0.0,5.0,76,0.00,,,0.00,Wunderground v.1.15,2013-06-08 04:36:00,
2013-06-07 21:38:00,57.2,49.7,30.13,West,262,0.0,5.0,76,0.00,,,0.00,Wunderground v.1.15,2013-06-08 04:38:00,
2013-06-07 21:40:00,57.2,49.7,30.13,SSW,213,0.0,2.0,76,0.00,,,0.00,Wunderground v.1.15,2013-06-08 04:40:00,
2013-06-07 21:41:00,57.1,49.6,30.13,SW,218,0.0,2.0,76,0.00,,,0.00,Wunderground v.1.15,2013-06-08 04:41:00,
2013-06-07 21:42:00,57.1,49.6,30.13,WSW,248,3.0,3.0,76,0.00,,,0.00,Wunderground v.1.15,2013-06-08 04:42:00,
2013-06-07 21:44:00,57.0,49.5,30.13,SW,221,0.0,5.0,76,0.00,,,0.00,Wunderground v.1.15,2013-06-08 04:44:00,
2013-06-07 21:45:00,57.0,49.5,30.13,SW,221,0.0,5.0,76,0.00,,,0.00,Wunderground v.1.15,2013-06-08 04:45:00,
2013-06-07 21:47:00,56.8,49.3,30.14,WSW,246,0.0,5.0,76,0.00,,,0.00,Wunderground v.1.15,2013-06-08 04:47:00,
2013-06-07 21:48:00,56.8,49.3,30.14,WSW,241,0.0,5.0,76,0.00,,,0.00,Wunderground v.1.15,2013-06-08 04:48:00,
2013-06-07 21:49:00,56.8,49.3,30.14,WSW,241,1.0,5.0,76,0.00,,,0.00,Wunderground v.1.15,2013-06-08 04:49:00,
2013-06-07 21:51:00,56.7,49.2,30.14,WSW,246,1.0,1.0,76,0.00,,,0.00,Wunderground v.1.15,2013-06-08 04:51:00,
2013-06-07 21:53:00,56.5,49.0,30.14,WSW,248,0.0,2.0,76,0.00,,,0.00,Wunderground v.1.15,2013-06-08 04:53:00,
2013-06-07 21:54:00,56.5,49.0,30.14,WSW,248,0.0,2.0,76,0.00,,,0.00,Wunderground v.1.15,2013-06-08 04:54:00,
2013-06-07 21:55:00,56.5,49.0,30.14,WSW,255,5.0,5.0,76,0.00,,,0.00,Wunderground v.1.15,2013-06-08 04:55:00,
2013-06-07 21:57:00,56.4,48.9,30.14,WSW,255,0.0,5.0,76,0.00,,,0.00,Wunderground v.1.15,2013-06-08 04:57:00,
2013-06-07 21:58:00,56.4,48.9,30.14,WSW,255,0.0,5.0,76,0.00,,,0.00,Wunderground v.1.15,2013-06-08 04:58:00,
2013-06-07 21:59:00,56.4,48.9,30.14,WSW,255,0.0,5.0,76,0.00,,,0.00,Wunderground v.1.15,2013-06-08 04:59:00,
2013-06-07 22:00:00,56.2,48.7,30.14,WSW,250,0.0,2.0,76,0.00,,,0.00,Wunderground v.1.15,2013-06-08 05:00:00,
2013-06-07 22:02:00,56.2,48.7,30.15,West,262,0.0,2.0,76,0.00,,,0.00,Wunderground v.1.15,2013-06-08 05:02:00,
2013-06-07 22:04:00,56.1,48.6,30.15,WSW,245,0.0,2.0,76,0.00,,,0.00,Wunderground v.1.15,2013-06-08 05:04:00,
2013-06-07 22:05:00,56.1,48.6,30.15,WSW,245,0.0,2.0,76,0.00,,,0.00,Wunderground v.1.15,2013-06-08 05:05:00,
2013-06-07 22:08:00,55.9,48.4,30.15,WSW,243,0.0,5.0,76,0.00,,,0.00,Wunderground v.1.15,2013-06-08 05:08:00,
2013-06-07 22:09:00,55.9,48.4,30.15,WSW,243,0.0,5.0,76,0.00,,,0.00,Wunderground v.1.15,2013-06-08 05:09:00,
2013-06-07 22:10:00,55.9,48.8,30.15,WSW,243,1.0,2.0,77,0.00,,,0.00,Wunderground v.1.15,2013-06-08 05:10:00,
2013-06-07 22:13:00,55.8,48.7,30.15,SW,236,0.0,2.0,77,0.00,,,0.00,Wunderground v.1.15,2013-06-08 05:13:00,
2013-06-07 22:14:00,55.6,48.5,30.15,SW,236,0.0,2.0,77,0.00,,,0.00,Wunderground v.1.15,2013-06-08 05:14:00,
2013-06-07 22:16:00,55.6,48.5,30.15,SW,236,0.0,2.0,77,0.00,,,0.00,Wunderground v.1.15,2013-06-08 05:16:00,
2013-06-07 22:18:00,55.5,48.4,30.15,WSW,249,0.0,2.0,77,0.00,,,0.00,Wunderground v.1.15,2013-06-08 05:18:00,
2013-06-07 22:20:00,55.5,48.4,30.15,WSW,249,0.0,0.0,77,0.00,,,0.00,Wunderground v.1.15,2013-06-08 05:20:00,
2013-06-07 22:21:00,55.5,48.8,30.15,WSW,249,0.0,0.0,78,0.00,,,0.00,Wunderground v.1.15,2013-06-08 05:21:00,
2013-06-07 22:23:00,55.3,48.6,30.15,WSW,249,0.0,0.0,78,0.00,,,0.00,Wunderground v.1.15,2013-06-08 05:23:00,
2013-06-07 22:25:00,55.3,48.6,30.15,WSW,249,0.0,0.0,78,0.00,,,0.00,Wunderground v.1.15,2013-06-08 05:25:00,
2013-06-07 22:26:00,55.2,48.5,30.15,WSW,249,1.0,1.0,78,0.00,,,0.00,Wunderground v.1.15,2013-06-08 05:26:00,
2013-06-07 22:28:00,55.2,48.5,30.15,WSW,249,0.0,1.0,78,0.00,,,0.00,Wunderground v.1.15,2013-06-08 05:28:00,
2013-06-07 22:30:00,55.2,48.5,30.15,WSW,249,0.0,0.0,78,0.00,,,0.00,Wunderground v.1.15,2013-06-08 05:30:00,
2013-06-07 22:31:00,55.0,48.3,30.15,WSW,249,0.0,0.0,78,0.00,,,0.00,Wunderground v.1.15,2013-06-08 05:31:00,
2013-06-07 22:32:00,55.0,48.3,30.15,WSW,249,0.0,0.0,78,0.00,,,0.00,Wunderground v.1.15,2013-06-08 05:32:00,
2013-06-07 22:33:00,55.0,48.3,30.15,SSW,210,0.0,3.0,78,0.00,,,0.00,Wunderground v.1.15,2013-06-08 05:33:00,
2013-06-07 22:36:00,54.9,47.8,30.15,SW,219,2.0,5.0,77,0.00,,,0.00,Wunderground v.1.15,2013-06-08 05:36:00,
2013-06-07 22:37:00,54.9,47.8,30.15,West,264,0.0,5.0,77,0.00,,,0.00,Wunderground v.1.15,2013-06-08 05:37:00,
2013-06-07 22:40:00,54.7,47.3,30.15,West,266,0.0,1.0,76,0.00,,,0.00,Wunderground v.1.15,2013-06-08 05:40:00,
2013-06-07 22:42:00,54.6,47.5,30.15,SW,214,1.0,5.0,77,0.00,,,0.00,Wunderground v.1.15,2013-06-08 05:42:00,
2013-06-07 22:43:00,54.6,47.5,30.15,SSW,209,0.0,5.0,77,0.00,,,0.00,Wunderground v.1.15,2013-06-08 05:43:00,
2013-06-07 22:45:00,54.6,47.5,30.15,SSW,209,0.0,5.0,77,0.00,,,0.00,Wunderground v.1.15,2013-06-08 05:45:00,
2013-06-07 22:47:00,54.4,47.0,30.15,West,267,0.0,5.0,76,0.00,,,0.00,Wunderground v.1.15,2013-06-08 05:47:00,
2013-06-07 22:48:00,54.3,46.9,30.15,West,268,0.0,5.0,76,0.00,,,0.00,Wunderground v.1.15,2013-06-08 05:48:00,
2013-06-07 22:49:00,54.3,46.9,30.15,West,268,0.0,5.0,76,0.00,,,0.00,Wunderground v.1.15,2013-06-08 05:49:00,
2013-06-07 22:51:00,54.3,46.9,30.15,West,260,0.0,4.0,76,0.00,,,0.00,Wunderground v.1.15,2013-06-08 05:51:00,
2013-06-07 22:52:00,54.1,46.7,30.15,West,261,1.0,4.0,76,0.00,,,0.00,Wunderground v.1.15,2013-06-08 05:52:00,
2013-06-07 22:54:00,54.1,46.7,30.15,West,261,0.0,4.0,76,0.00,,,0.00,Wunderground v.1.15,2013-06-08 05:54:00,
2013-06-07 22:57:00,54.0,46.6,30.15,WSW,258,2.0,5.0,76,0.00,,,0.00,Wunderground v.1.15,2013-06-08 05:57:00,
2013-06-07 22:58:00,54.0,46.6,30.15,WSW,258,0.0,5.0,76,0.00,,,0.00,Wunderground v.1.15,2013-06-08 05:58:00,
2013-06-07 22:59:00,54.0,46.6,30.15,WSW,251,0.0,1.0,76,0.00,,,0.00,Wunderground v.1.15,2013-06-08 05:59:00,
2013-06-07 23:00:00,54.0,46.6,30.15,WSW,251,0.0,1.0,76,0.00,,,0.00,Wunderground v.1.15,2013-06-08 06:00:00,
2013-06-07 23:03:00,54.0,46.6,30.16,WSW,255,0.0,1.0,76,0.00,,,0.00,Wunderground v.1.15,2013-06-08 06:03:00,
2013-06-07 23:05:00,53.8,46.1,30.16,WSW,252,0.0,2.0,75,0.00,,,0.00,Wunderground v.1.15,2013-06-08 06:05:00,
2013-06-07 23:08:00,53.8,46.1,30.16,WSW,255,0.0,4.0,75,0.00,,,0.00,Wunderground v.1.15,2013-06-08 06:08:00,
2013-06-07 23:10:00,53.8,46.1,30.16,WSW,242,0.0,1.0,75,0.00,,,0.00,Wunderground v.1.15,2013-06-08 06:10:00,
2013-06-07 23:12:00,53.7,46.0,30.16,WSW,255,3.0,5.0,75,0.00,,,0.00,Wunderground v.1.15,2013-06-08 06:12:00,
2013-06-07 23:13:00,53.7,46.0,30.16,West,259,0.0,5.0,75,0.00,,,0.00,Wunderground v.1.15,2013-06-08 06:13:00,
2013-06-07 23:15:00,53.7,46.0,30.16,West,259,1.0,5.0,75,0.00,,,0.00,Wunderground v.1.15,2013-06-08 06:15:00,
2013-06-07 23:17:00,53.7,46.0,30.16,WSW,249,1.0,5.0,75,0.00,,,0.00,Wunderground v.1.15,2013-06-08 06:17:00,
2013-06-07 23:18:00,53.6,45.5,30.16,SSW,207,0.0,5.0,74,0.00,,,0.00,Wunderground v.1.15,2013-06-08 06:18:00,
2013-06-07 23:20:00,53.6,45.5,30.16,SSW,208,0.0,2.0,74,0.00,,,0.00,Wunderground v.1.15,2013-06-08 06:20:00,
2013-06-07 23:21:00,53.6,45.9,30.16,SSW,208,1.0,2.0,75,0.00,,,0.00,Wunderground v.1.15,2013-06-08 06:21:00,
2013-06-07 23:24:00,53.6,45.9,30.16,SW,229,0.0,5.0,75,0.00,,,0.00,Wunderground v.1.15,2013-06-08 06:24:00,
2013-06-07 23:27:00,53.4,45.7,30.16,SW,233,2.0,5.0,75,0.00,,,0.00,Wunderground v.1.15,2013-06-08 06:27:00,
2013-06-07 23:29:00,53.4,45.7,30.16,WSW,251,0.0,9.0,75,0.00,,,0.00,Wunderground v.1.15,2013-06-08 06:29:00,
2013-06-07 23:32:00,53.3,45.6,30.16,WSW,251,0.0,1.0,75,0.00,,,0.00,Wunderground v.1.15,2013-06-08 06:32:00,
2013-06-07 23:33:00,53.3,45.6,30.16,WSW,251,0.0,1.0,75,0.00,,,0.00,Wunderground v.1.15,2013-06-08 06:33:00,
2013-06-07 23:34:00,53.3,45.6,30.16,WSW,251,0.0,1.0,75,0.00,,,0.00,Wunderground v.1.15,2013-06-08 06:34:00,
2013-06-07 23:35:00,53.3,45.6,30.16,WSW,251,1.0,1.0,75,0.00,,,0.00,Wunderground v.1.15,2013-06-08 06:35:00,
2013-06-07 23:37:00,53.1,45.4,30.16,West,259,0.0,5.0,75,0.00,,,0.00,Wunderground v.1.15,2013-06-08 06:37:00,
2013-06-07 23:39:00,53.1,45.4,30.16,West,259,0.0,5.0,75,0.00,,,0.00,Wunderground v.1.15,2013-06-08 06:39:00,
2013-06-07 23:40:00,53.1,45.4,30.16,West,259,0.0,0.0,75,0.00,,,0.00,Wunderground v.1.15,2013-06-08 06:40:00,
2013-06-07 23:42:00,53.1,45.4,30.16,WSW,242,0.0,5.0,75,0.00,,,0.00,Wunderground v.1.15,2013-06-08 06:42:00,
2013-06-07 23:44:00,53.0,45.3,30.16,SW,219,2.0,5.0,75,0.00,,,0.00,Wunderground v.1.15,2013-06-08 06:44:00,
2013-06-07 23:45:00,53.0,45.3,30.16,SW,227,2.0,5.0,75,0.00,,,0.00,Wunderground v.1.15,2013-06-08 06:45:00,
2013-06-07 23:46:00,53.0,45.3,30.16,SW,235,0.0,5.0,75,0.00,,,0.00,Wunderground v.1.15,2013-06-08 06:46:00,
2013-06-07 23:47:00,53.0,45.3,30.17,WSW,253,0.0,5.0,75,0.00,,,0.00,Wunderground v.1.15,2013-06-08 06:47:00,
2013-06-07 23:49:00,53.0,45.3,30.17,WSW,250,0.0,5.0,75,0.00,,,0.00,Wunderground v.1.15,2013-06-08 06:49:00,
2013-06-07 23:50:00,53.0,45.6,30.17,WSW,250,0.0,1.0,76,0.00,,,0.00,Wunderground v.1.15,2013-06-08 06:50:00,
2013-06-07 23:51:00,53.0,45.6,30.17,WSW,257,4.0,5.0,76,0.00,,,0.00,Wunderground v.1.15,2013-06-08 06:51:00,
2013-06-07 23:53:00,52.8,45.1,30.17,WSW,257,0.0,5.0,75,0.00,,,0.00,Wunderground v.1.15,2013-06-08 06:53:00,
2013-06-07 23:54:00,52.8,45.1,30.17,West,259,0.0,5.0,75,0.00,,,0.00,Wunderground v.1.15,2013-06-08 06:54:00,
2013-06-07 23:56:00,52.8,45.1,30.17,West,259,0.0,5.0,75,0.00,,,0.00,Wunderground v.1.15,2013-06-08 06:56:00,
2013-06-07 23:58:00,52.8,45.1,30.17,West,260,1.0,5.0,75,0.00,,,0.00,Wunderground v.1.15,2013-06-08 06:58:00,